<?xml version="1.0" encoding="UTF-8" standalone="no" ?>
<gpx xmlns="http://www.topografix.com/GPX/1/1" creator="www.plotaroute.com" version="1.1"  xmlns:xsi="http://www.w3.org/2001/XMLSchema-instance" xsi:schemaLocation="http://www.topografix.com/GPX/1/1 http://www.topografix.com/GPX/1/1/gpx.xsd">
<metadata>
<desc>Route created on plotaroute.com</desc>
</metadata>
<wpt lat="31.66318" lon="34.93642">
<time>2021-04-08T01:30:30Z</time>
<name>FINISH</name>
<cmt>FINISH</cmt>
<desc>FINISH</desc>
<sym>Flag, Blue</sym>
</wpt>
<trk>
<name>Britania-light2-30km590m</name>
<trkseg>
<trkpt lat="31.66324" lon="34.93663">
<ele>294</ele>
<time>2021-04-08T00:00:00Z</time></trkpt>
<trkpt lat="31.66323" lon="34.93643">
<ele>292</ele>
<time>2021-04-08T00:00:03Z</time></trkpt>
<trkpt lat="31.66334" lon="34.93641">
<ele>291</ele>
<time>2021-04-08T00:00:06Z</time></trkpt>
<trkpt lat="31.66344" lon="34.93635">
<ele>291</ele>
<time>2021-04-08T00:00:08Z</time></trkpt>
<trkpt lat="31.66371" lon="34.93603">
<ele>289</ele>
<time>2021-04-08T00:00:16Z</time></trkpt>
<trkpt lat="31.66391" lon="34.93586">
<ele>289</ele>
<time>2021-04-08T00:00:21Z</time></trkpt>
<trkpt lat="31.66413" lon="34.93571">
<ele>290</ele>
<time>2021-04-08T00:00:26Z</time></trkpt>
<trkpt lat="31.66418" lon="34.93565">
<ele>290</ele>
<time>2021-04-08T00:00:27Z</time></trkpt>
<trkpt lat="31.66426" lon="34.93554">
<ele>290</ele>
<time>2021-04-08T00:00:30Z</time></trkpt>
<trkpt lat="31.66432" lon="34.93538">
<ele>290</ele>
<time>2021-04-08T00:00:33Z</time></trkpt>
<trkpt lat="31.66433" lon="34.93525">
<ele>289</ele>
<time>2021-04-08T00:00:35Z</time></trkpt>
<trkpt lat="31.6644" lon="34.93471">
<ele>288</ele>
<time>2021-04-08T00:00:44Z</time></trkpt>
<trkpt lat="31.6645" lon="34.93436">
<ele>289</ele>
<time>2021-04-08T00:00:50Z</time></trkpt>
<trkpt lat="31.66455" lon="34.93421">
<ele>290</ele>
<time>2021-04-08T00:00:53Z</time></trkpt>
<trkpt lat="31.66471" lon="34.93389">
<ele>291</ele>
<time>2021-04-08T00:00:59Z</time></trkpt>
<trkpt lat="31.66494" lon="34.93348">
<ele>289</ele>
<time>2021-04-08T00:01:08Z</time></trkpt>
<trkpt lat="31.66508" lon="34.93319">
<ele>288</ele>
<time>2021-04-08T00:01:13Z</time></trkpt>
<trkpt lat="31.6654" lon="34.93241">
<ele>283</ele>
<time>2021-04-08T00:01:28Z</time></trkpt>
<trkpt lat="31.66547" lon="34.93227">
<ele>283</ele>
<time>2021-04-08T00:01:31Z</time></trkpt>
<trkpt lat="31.66553" lon="34.9322">
<ele>282</ele>
<time>2021-04-08T00:01:33Z</time></trkpt>
<trkpt lat="31.66563" lon="34.9321">
<ele>282</ele>
<time>2021-04-08T00:01:35Z</time></trkpt>
<trkpt lat="31.66586" lon="34.93198">
<ele>281</ele>
<time>2021-04-08T00:01:40Z</time></trkpt>
<trkpt lat="31.66612" lon="34.93194">
<ele>280</ele>
<time>2021-04-08T00:01:46Z</time></trkpt>
<trkpt lat="31.66626" lon="34.93195">
<ele>280</ele>
<time>2021-04-08T00:01:48Z</time></trkpt>
<trkpt lat="31.6665" lon="34.932">
<ele>279</ele>
<time>2021-04-08T00:01:53Z</time></trkpt>
<trkpt lat="31.66664" lon="34.93208">
<ele>279</ele>
<time>2021-04-08T00:01:56Z</time></trkpt>
<trkpt lat="31.66683" lon="34.93228">
<ele>279</ele>
<time>2021-04-08T00:02:02Z</time></trkpt>
<trkpt lat="31.66727" lon="34.93301">
<ele>281</ele>
<time>2021-04-08T00:02:17Z</time></trkpt>
<trkpt lat="31.66733" lon="34.93309">
<ele>281</ele>
<time>2021-04-08T00:02:19Z</time></trkpt>
<trkpt lat="31.66751" lon="34.93328">
<ele>281</ele>
<time>2021-04-08T00:02:23Z</time></trkpt>
<trkpt lat="31.66771" lon="34.93338">
<ele>280</ele>
<time>2021-04-08T00:02:28Z</time></trkpt>
<trkpt lat="31.66815" lon="34.93258">
<ele>276</ele>
<time>2021-04-08T00:02:44Z</time></trkpt>
<trkpt lat="31.66804" lon="34.93247">
<ele>276</ele>
<time>2021-04-08T00:02:47Z</time></trkpt>
<trkpt lat="31.6681" lon="34.93235">
<ele>277</ele>
<time>2021-04-08T00:02:49Z</time></trkpt>
<trkpt lat="31.66822" lon="34.93237">
<ele>278</ele>
<time>2021-04-08T00:02:52Z</time></trkpt>
<trkpt lat="31.66845" lon="34.93265">
<ele>277</ele>
<time>2021-04-08T00:02:58Z</time></trkpt>
<trkpt lat="31.6689" lon="34.93303">
<ele>275</ele>
<time>2021-04-08T00:03:10Z</time></trkpt>
<trkpt lat="31.6691" lon="34.93307">
<ele>275</ele>
<time>2021-04-08T00:03:14Z</time></trkpt>
<trkpt lat="31.66949" lon="34.93278">
<ele>281</ele>
<time>2021-04-08T00:03:23Z</time></trkpt>
<trkpt lat="31.66991" lon="34.93274">
<ele>284</ele>
<time>2021-04-08T00:03:31Z</time></trkpt>
<trkpt lat="31.67033" lon="34.93278">
<ele>284</ele>
<time>2021-04-08T00:03:40Z</time></trkpt>
<trkpt lat="31.67096" lon="34.93352">
<ele>280</ele>
<time>2021-04-08T00:03:58Z</time></trkpt>
<trkpt lat="31.67102" lon="34.9336">
<ele>280</ele>
<time>2021-04-08T00:03:59Z</time></trkpt>
<trkpt lat="31.6715" lon="34.934">
<ele>279</ele>
<time>2021-04-08T00:04:11Z</time></trkpt>
<trkpt lat="31.67151" lon="34.934">
<ele>279</ele>
<time>2021-04-08T00:04:11Z</time></trkpt>
<trkpt lat="31.6715" lon="34.934">
<ele>279</ele>
<time>2021-04-08T00:04:12Z</time></trkpt>
<trkpt lat="31.67182" lon="34.93421">
<ele>278</ele>
<time>2021-04-08T00:04:19Z</time></trkpt>
<trkpt lat="31.67196" lon="34.93429">
<ele>278</ele>
<time>2021-04-08T00:04:22Z</time></trkpt>
<trkpt lat="31.67217" lon="34.93433">
<ele>278</ele>
<time>2021-04-08T00:04:26Z</time></trkpt>
<trkpt lat="31.67255" lon="34.93432">
<ele>281</ele>
<time>2021-04-08T00:04:34Z</time></trkpt>
<trkpt lat="31.67263" lon="34.9343">
<ele>282</ele>
<time>2021-04-08T00:04:36Z</time></trkpt>
<trkpt lat="31.67274" lon="34.93421">
<ele>283</ele>
<time>2021-04-08T00:04:38Z</time></trkpt>
<trkpt lat="31.67279" lon="34.93411">
<ele>284</ele>
<time>2021-04-08T00:04:40Z</time></trkpt>
<trkpt lat="31.67317" lon="34.93378">
<ele>290</ele>
<time>2021-04-08T00:04:50Z</time></trkpt>
<trkpt lat="31.67381" lon="34.93309">
<ele>296</ele>
<time>2021-04-08T00:05:07Z</time></trkpt>
<trkpt lat="31.67423" lon="34.93263">
<ele>296</ele>
<time>2021-04-08T00:05:19Z</time></trkpt>
<trkpt lat="31.6746" lon="34.93217">
<ele>300</ele>
<time>2021-04-08T00:05:29Z</time></trkpt>
<trkpt lat="31.67483" lon="34.93191">
<ele>301</ele>
<time>2021-04-08T00:05:36Z</time></trkpt>
<trkpt lat="31.67503" lon="34.93157">
<ele>302</ele>
<time>2021-04-08T00:05:43Z</time></trkpt>
<trkpt lat="31.67503" lon="34.93137">
<ele>304</ele>
<time>2021-04-08T00:05:46Z</time></trkpt>
<trkpt lat="31.67512" lon="34.93099">
<ele>307</ele>
<time>2021-04-08T00:05:53Z</time></trkpt>
<trkpt lat="31.67534" lon="34.9308">
<ele>307</ele>
<time>2021-04-08T00:05:58Z</time></trkpt>
<trkpt lat="31.67566" lon="34.93064">
<ele>307</ele>
<time>2021-04-08T00:06:05Z</time></trkpt>
<trkpt lat="31.67595" lon="34.93043">
<ele>309</ele>
<time>2021-04-08T00:06:12Z</time></trkpt>
<trkpt lat="31.67624" lon="34.93047">
<ele>310</ele>
<time>2021-04-08T00:06:18Z</time></trkpt>
<trkpt lat="31.67654" lon="34.93048">
<ele>311</ele>
<time>2021-04-08T00:06:24Z</time></trkpt>
<trkpt lat="31.67687" lon="34.93045">
<ele>313</ele>
<time>2021-04-08T00:06:31Z</time></trkpt>
<trkpt lat="31.67711" lon="34.9304">
<ele>315</ele>
<time>2021-04-08T00:06:36Z</time></trkpt>
<trkpt lat="31.67731" lon="34.93045">
<ele>316</ele>
<time>2021-04-08T00:06:40Z</time></trkpt>
<trkpt lat="31.67749" lon="34.93062">
<ele>316</ele>
<time>2021-04-08T00:06:44Z</time></trkpt>
<trkpt lat="31.6776" lon="34.93061">
<ele>316</ele>
<time>2021-04-08T00:06:47Z</time></trkpt>
<trkpt lat="31.67761" lon="34.93017">
<ele>319</ele>
<time>2021-04-08T00:06:54Z</time></trkpt>
<trkpt lat="31.67757" lon="34.92985">
<ele>321</ele>
<time>2021-04-08T00:07:00Z</time></trkpt>
<trkpt lat="31.67766" lon="34.92896">
<ele>331</ele>
<time>2021-04-08T00:07:15Z</time></trkpt>
<trkpt lat="31.67765" lon="34.92874">
<ele>333</ele>
<time>2021-04-08T00:07:19Z</time></trkpt>
<trkpt lat="31.67769" lon="34.92873">
<ele>333</ele>
<time>2021-04-08T00:07:19Z</time></trkpt>
<trkpt lat="31.67771" lon="34.9276">
<ele>332</ele>
<time>2021-04-08T00:07:39Z</time></trkpt>
<trkpt lat="31.67709" lon="34.92738">
<ele>332</ele>
<time>2021-04-08T00:07:52Z</time></trkpt>
<trkpt lat="31.67696" lon="34.92735">
<ele>332</ele>
<time>2021-04-08T00:07:54Z</time></trkpt>
<trkpt lat="31.67695" lon="34.92735">
<ele>332</ele>
<time>2021-04-08T00:07:55Z</time></trkpt>
<trkpt lat="31.67685" lon="34.92732">
<ele>332</ele>
<time>2021-04-08T00:07:57Z</time></trkpt>
<trkpt lat="31.67662" lon="34.92719">
<ele>332</ele>
<time>2021-04-08T00:08:02Z</time></trkpt>
<trkpt lat="31.67625" lon="34.92702">
<ele>335</ele>
<time>2021-04-08T00:08:10Z</time></trkpt>
<trkpt lat="31.67615" lon="34.92688">
<ele>335</ele>
<time>2021-04-08T00:08:13Z</time></trkpt>
<trkpt lat="31.676" lon="34.9267">
<ele>335</ele>
<time>2021-04-08T00:08:17Z</time></trkpt>
<trkpt lat="31.67584" lon="34.9266">
<ele>336</ele>
<time>2021-04-08T00:08:21Z</time></trkpt>
<trkpt lat="31.67567" lon="34.92652">
<ele>336</ele>
<time>2021-04-08T00:08:24Z</time></trkpt>
<trkpt lat="31.67549" lon="34.92647">
<ele>336</ele>
<time>2021-04-08T00:08:28Z</time></trkpt>
<trkpt lat="31.67542" lon="34.92646">
<ele>336</ele>
<time>2021-04-08T00:08:30Z</time></trkpt>
<trkpt lat="31.6751" lon="34.92639">
<ele>336</ele>
<time>2021-04-08T00:08:36Z</time></trkpt>
<trkpt lat="31.67489" lon="34.92636">
<ele>337</ele>
<time>2021-04-08T00:08:40Z</time></trkpt>
<trkpt lat="31.67469" lon="34.92625">
<ele>337</ele>
<time>2021-04-08T00:08:45Z</time></trkpt>
<trkpt lat="31.67441" lon="34.92599">
<ele>335</ele>
<time>2021-04-08T00:08:52Z</time></trkpt>
<trkpt lat="31.67419" lon="34.9257">
<ele>332</ele>
<time>2021-04-08T00:08:58Z</time></trkpt>
<trkpt lat="31.67408" lon="34.92559">
<ele>333</ele>
<time>2021-04-08T00:09:01Z</time></trkpt>
<trkpt lat="31.674" lon="34.92545">
<ele>332</ele>
<time>2021-04-08T00:09:04Z</time></trkpt>
<trkpt lat="31.67397" lon="34.92537">
<ele>332</ele>
<time>2021-04-08T00:09:06Z</time></trkpt>
<trkpt lat="31.67391" lon="34.92486">
<ele>326</ele>
<time>2021-04-08T00:09:15Z</time></trkpt>
<trkpt lat="31.67387" lon="34.92474">
<ele>325</ele>
<time>2021-04-08T00:09:17Z</time></trkpt>
<trkpt lat="31.67381" lon="34.92463">
<ele>325</ele>
<time>2021-04-08T00:09:19Z</time></trkpt>
<trkpt lat="31.67373" lon="34.92455">
<ele>325</ele>
<time>2021-04-08T00:09:21Z</time></trkpt>
<trkpt lat="31.67357" lon="34.92447">
<ele>325</ele>
<time>2021-04-08T00:09:25Z</time></trkpt>
<trkpt lat="31.67317" lon="34.92444">
<ele>327</ele>
<time>2021-04-08T00:09:33Z</time></trkpt>
<trkpt lat="31.67306" lon="34.92446">
<ele>327</ele>
<time>2021-04-08T00:09:35Z</time></trkpt>
<trkpt lat="31.67205" lon="34.92459">
<ele>330</ele>
<time>2021-04-08T00:09:55Z</time></trkpt>
<trkpt lat="31.67166" lon="34.92482">
<ele>332</ele>
<time>2021-04-08T00:10:04Z</time></trkpt>
<trkpt lat="31.67162" lon="34.92515">
<ele>334</ele>
<time>2021-04-08T00:10:10Z</time></trkpt>
<trkpt lat="31.67174" lon="34.92575">
<ele>338</ele>
<time>2021-04-08T00:10:20Z</time></trkpt>
<trkpt lat="31.6719" lon="34.92598">
<ele>343</ele>
<time>2021-04-08T00:10:25Z</time></trkpt>
<trkpt lat="31.67193" lon="34.92608">
<ele>344</ele>
<time>2021-04-08T00:10:27Z</time></trkpt>
<trkpt lat="31.67189" lon="34.92628">
<ele>345</ele>
<time>2021-04-08T00:10:30Z</time></trkpt>
<trkpt lat="31.6718" lon="34.92645">
<ele>344</ele>
<time>2021-04-08T00:10:34Z</time></trkpt>
<trkpt lat="31.6717" lon="34.92661">
<ele>342</ele>
<time>2021-04-08T00:10:37Z</time></trkpt>
<trkpt lat="31.67157" lon="34.92658">
<ele>341</ele>
<time>2021-04-08T00:10:40Z</time></trkpt>
<trkpt lat="31.6713" lon="34.92648">
<ele>338</ele>
<time>2021-04-08T00:10:46Z</time></trkpt>
<trkpt lat="31.67111" lon="34.92619">
<ele>333</ele>
<time>2021-04-08T00:10:52Z</time></trkpt>
<trkpt lat="31.67088" lon="34.926">
<ele>327</ele>
<time>2021-04-08T00:10:57Z</time></trkpt>
<trkpt lat="31.67054" lon="34.92594">
<ele>324</ele>
<time>2021-04-08T00:11:04Z</time></trkpt>
<trkpt lat="31.67003" lon="34.92583">
<ele>320</ele>
<time>2021-04-08T00:11:15Z</time></trkpt>
<trkpt lat="31.66932" lon="34.92599">
<ele>324</ele>
<time>2021-04-08T00:11:29Z</time></trkpt>
<trkpt lat="31.66903" lon="34.92622">
<ele>324</ele>
<time>2021-04-08T00:11:36Z</time></trkpt>
<trkpt lat="31.66904" lon="34.92606">
<ele>325</ele>
<time>2021-04-08T00:11:39Z</time></trkpt>
<trkpt lat="31.66888" lon="34.925">
<ele>326</ele>
<time>2021-04-08T00:11:57Z</time></trkpt>
<trkpt lat="31.66872" lon="34.92384">
<ele>334</ele>
<time>2021-04-08T00:12:17Z</time></trkpt>
<trkpt lat="31.66865" lon="34.92325">
<ele>338</ele>
<time>2021-04-08T00:12:28Z</time></trkpt>
<trkpt lat="31.66864" lon="34.92202">
<ele>340</ele>
<time>2021-04-08T00:12:49Z</time></trkpt>
<trkpt lat="31.66862" lon="34.92185">
<ele>340</ele>
<time>2021-04-08T00:12:51Z</time></trkpt>
<trkpt lat="31.66856" lon="34.92161">
<ele>341</ele>
<time>2021-04-08T00:12:56Z</time></trkpt>
<trkpt lat="31.66845" lon="34.92139">
<ele>341</ele>
<time>2021-04-08T00:13:00Z</time></trkpt>
<trkpt lat="31.66829" lon="34.92116">
<ele>341</ele>
<time>2021-04-08T00:13:05Z</time></trkpt>
<trkpt lat="31.66818" lon="34.92105">
<ele>340</ele>
<time>2021-04-08T00:13:08Z</time></trkpt>
<trkpt lat="31.66805" lon="34.92097">
<ele>339</ele>
<time>2021-04-08T00:13:11Z</time></trkpt>
<trkpt lat="31.66789" lon="34.92096">
<ele>339</ele>
<time>2021-04-08T00:13:14Z</time></trkpt>
<trkpt lat="31.66784" lon="34.92099">
<ele>340</ele>
<time>2021-04-08T00:13:15Z</time></trkpt>
<trkpt lat="31.66767" lon="34.92132">
<ele>346</ele>
<time>2021-04-08T00:13:22Z</time></trkpt>
<trkpt lat="31.66742" lon="34.92165">
<ele>352</ele>
<time>2021-04-08T00:13:29Z</time></trkpt>
<trkpt lat="31.6671" lon="34.92181">
<ele>356</ele>
<time>2021-04-08T00:13:36Z</time></trkpt>
<trkpt lat="31.66678" lon="34.92165">
<ele>355</ele>
<time>2021-04-08T00:13:43Z</time></trkpt>
<trkpt lat="31.66644" lon="34.92132">
<ele>349</ele>
<time>2021-04-08T00:13:52Z</time></trkpt>
<trkpt lat="31.66643" lon="34.92132">
<ele>349</ele>
<time>2021-04-08T00:13:52Z</time></trkpt>
<trkpt lat="31.66633" lon="34.92122">
<ele>347</ele>
<time>2021-04-08T00:13:55Z</time></trkpt>
<trkpt lat="31.66603" lon="34.9211">
<ele>347</ele>
<time>2021-04-08T00:14:01Z</time></trkpt>
<trkpt lat="31.66545" lon="34.92099">
<ele>345</ele>
<time>2021-04-08T00:14:13Z</time></trkpt>
<trkpt lat="31.66522" lon="34.9209">
<ele>344</ele>
<time>2021-04-08T00:14:18Z</time></trkpt>
<trkpt lat="31.6649" lon="34.92083">
<ele>341</ele>
<time>2021-04-08T00:14:25Z</time></trkpt>
<trkpt lat="31.66478" lon="34.92086">
<ele>340</ele>
<time>2021-04-08T00:14:27Z</time></trkpt>
<trkpt lat="31.66471" lon="34.92091">
<ele>339</ele>
<time>2021-04-08T00:14:29Z</time></trkpt>
<trkpt lat="31.66466" lon="34.92099">
<ele>339</ele>
<time>2021-04-08T00:14:30Z</time></trkpt>
<trkpt lat="31.66464" lon="34.92108">
<ele>339</ele>
<time>2021-04-08T00:14:32Z</time></trkpt>
<trkpt lat="31.66465" lon="34.92118">
<ele>341</ele>
<time>2021-04-08T00:14:34Z</time></trkpt>
<trkpt lat="31.66492" lon="34.92189">
<ele>353</ele>
<time>2021-04-08T00:14:47Z</time></trkpt>
<trkpt lat="31.66486" lon="34.92216">
<ele>354</ele>
<time>2021-04-08T00:14:52Z</time></trkpt>
<trkpt lat="31.66467" lon="34.9222">
<ele>352</ele>
<time>2021-04-08T00:14:56Z</time></trkpt>
<trkpt lat="31.66397" lon="34.92214">
<ele>344</ele>
<time>2021-04-08T00:15:10Z</time></trkpt>
<trkpt lat="31.66387" lon="34.9221">
<ele>343</ele>
<time>2021-04-08T00:15:12Z</time></trkpt>
<trkpt lat="31.66361" lon="34.92196">
<ele>339</ele>
<time>2021-04-08T00:15:17Z</time></trkpt>
<trkpt lat="31.66351" lon="34.92194">
<ele>338</ele>
<time>2021-04-08T00:15:19Z</time></trkpt>
<trkpt lat="31.66319" lon="34.92202">
<ele>339</ele>
<time>2021-04-08T00:15:26Z</time></trkpt>
<trkpt lat="31.663" lon="34.9221">
<ele>340</ele>
<time>2021-04-08T00:15:30Z</time></trkpt>
<trkpt lat="31.66285" lon="34.92186">
<ele>339</ele>
<time>2021-04-08T00:15:35Z</time></trkpt>
<trkpt lat="31.66274" lon="34.92135">
<ele>335</ele>
<time>2021-04-08T00:15:44Z</time></trkpt>
<trkpt lat="31.66233" lon="34.92048">
<ele>337</ele>
<time>2021-04-08T00:16:01Z</time></trkpt>
<trkpt lat="31.66226" lon="34.92021">
<ele>336</ele>
<time>2021-04-08T00:16:06Z</time></trkpt>
<trkpt lat="31.66226" lon="34.9202">
<ele>336</ele>
<time>2021-04-08T00:16:06Z</time></trkpt>
<trkpt lat="31.66202" lon="34.91983">
<ele>338</ele>
<time>2021-04-08T00:16:14Z</time></trkpt>
<trkpt lat="31.66196" lon="34.9197">
<ele>337</ele>
<time>2021-04-08T00:16:17Z</time></trkpt>
<trkpt lat="31.66188" lon="34.91964">
<ele>338</ele>
<time>2021-04-08T00:16:18Z</time></trkpt>
<trkpt lat="31.66157" lon="34.91951">
<ele>339</ele>
<time>2021-04-08T00:16:25Z</time></trkpt>
<trkpt lat="31.66147" lon="34.91951">
<ele>339</ele>
<time>2021-04-08T00:16:27Z</time></trkpt>
<trkpt lat="31.6614" lon="34.91959">
<ele>339</ele>
<time>2021-04-08T00:16:29Z</time></trkpt>
<trkpt lat="31.66148" lon="34.91984">
<ele>344</ele>
<time>2021-04-08T00:16:34Z</time></trkpt>
<trkpt lat="31.66151" lon="34.92011">
<ele>348</ele>
<time>2021-04-08T00:16:38Z</time></trkpt>
<trkpt lat="31.66153" lon="34.92053">
<ele>354</ele>
<time>2021-04-08T00:16:45Z</time></trkpt>
<trkpt lat="31.66153" lon="34.92052">
<ele>354</ele>
<time>2021-04-08T00:16:46Z</time></trkpt>
<trkpt lat="31.66154" lon="34.92067">
<ele>356</ele>
<time>2021-04-08T00:16:48Z</time></trkpt>
<trkpt lat="31.66142" lon="34.92094">
<ele>359</ele>
<time>2021-04-08T00:16:53Z</time></trkpt>
<trkpt lat="31.6613" lon="34.92112">
<ele>362</ele>
<time>2021-04-08T00:16:57Z</time></trkpt>
<trkpt lat="31.66107" lon="34.92117">
<ele>365</ele>
<time>2021-04-08T00:17:02Z</time></trkpt>
<trkpt lat="31.66015" lon="34.92126">
<ele>374</ele>
<time>2021-04-08T00:17:20Z</time></trkpt>
<trkpt lat="31.65973" lon="34.92108">
<ele>373</ele>
<time>2021-04-08T00:17:29Z</time></trkpt>
<trkpt lat="31.6593" lon="34.92094">
<ele>374</ele>
<time>2021-04-08T00:17:38Z</time></trkpt>
<trkpt lat="31.65913" lon="34.92098">
<ele>375</ele>
<time>2021-04-08T00:17:42Z</time></trkpt>
<trkpt lat="31.65903" lon="34.92108">
<ele>375</ele>
<time>2021-04-08T00:17:44Z</time></trkpt>
<trkpt lat="31.65893" lon="34.92122">
<ele>375</ele>
<time>2021-04-08T00:17:47Z</time></trkpt>
<trkpt lat="31.6587" lon="34.92175">
<ele>376</ele>
<time>2021-04-08T00:17:58Z</time></trkpt>
<trkpt lat="31.65828" lon="34.92219">
<ele>369</ele>
<time>2021-04-08T00:18:09Z</time></trkpt>
<trkpt lat="31.65785" lon="34.92266">
<ele>362</ele>
<time>2021-04-08T00:18:21Z</time></trkpt>
<trkpt lat="31.65779" lon="34.92271">
<ele>360</ele>
<time>2021-04-08T00:18:22Z</time></trkpt>
<trkpt lat="31.65772" lon="34.92273">
<ele>359</ele>
<time>2021-04-08T00:18:24Z</time></trkpt>
<trkpt lat="31.65749" lon="34.92263">
<ele>357</ele>
<time>2021-04-08T00:18:28Z</time></trkpt>
<trkpt lat="31.65732" lon="34.92264">
<ele>358</ele>
<time>2021-04-08T00:18:32Z</time></trkpt>
<trkpt lat="31.65708" lon="34.92262">
<ele>358</ele>
<time>2021-04-08T00:18:37Z</time></trkpt>
<trkpt lat="31.65679" lon="34.92252">
<ele>360</ele>
<time>2021-04-08T00:18:43Z</time></trkpt>
<trkpt lat="31.65643" lon="34.92229">
<ele>359</ele>
<time>2021-04-08T00:18:51Z</time></trkpt>
<trkpt lat="31.65624" lon="34.9222">
<ele>360</ele>
<time>2021-04-08T00:18:55Z</time></trkpt>
<trkpt lat="31.65521" lon="34.92188">
<ele>368</ele>
<time>2021-04-08T00:19:16Z</time></trkpt>
<trkpt lat="31.6542" lon="34.92144">
<ele>379</ele>
<time>2021-04-08T00:19:38Z</time></trkpt>
<trkpt lat="31.65391" lon="34.92084">
<ele>377</ele>
<time>2021-04-08T00:19:50Z</time></trkpt>
<trkpt lat="31.65402" lon="34.92049">
<ele>377</ele>
<time>2021-04-08T00:19:56Z</time></trkpt>
<trkpt lat="31.65367" lon="34.91884">
<ele>379</ele>
<time>2021-04-08T00:20:25Z</time></trkpt>
<trkpt lat="31.65336" lon="34.91846">
<ele>378</ele>
<time>2021-04-08T00:20:34Z</time></trkpt>
<trkpt lat="31.64949" lon="34.9171">
<ele>380</ele>
<time>2021-04-08T00:21:55Z</time></trkpt>
<trkpt lat="31.64727" lon="34.91605">
<ele>378</ele>
<time>2021-04-08T00:22:43Z</time></trkpt>
<trkpt lat="31.64727" lon="34.91602">
<ele>378</ele>
<time>2021-04-08T00:22:44Z</time></trkpt>
<trkpt lat="31.64723" lon="34.91601">
<ele>377</ele>
<time>2021-04-08T00:22:44Z</time></trkpt>
<trkpt lat="31.64693" lon="34.91621">
<ele>376</ele>
<time>2021-04-08T00:22:51Z</time></trkpt>
<trkpt lat="31.64685" lon="34.91626">
<ele>376</ele>
<time>2021-04-08T00:22:53Z</time></trkpt>
<trkpt lat="31.64674" lon="34.9163">
<ele>376</ele>
<time>2021-04-08T00:22:55Z</time></trkpt>
<trkpt lat="31.64642" lon="34.91634">
<ele>376</ele>
<time>2021-04-08T00:23:02Z</time></trkpt>
<trkpt lat="31.64631" lon="34.91634">
<ele>375</ele>
<time>2021-04-08T00:23:04Z</time></trkpt>
<trkpt lat="31.64609" lon="34.91631">
<ele>375</ele>
<time>2021-04-08T00:23:08Z</time></trkpt>
<trkpt lat="31.64565" lon="34.91631">
<ele>375</ele>
<time>2021-04-08T00:23:17Z</time></trkpt>
<trkpt lat="31.64555" lon="34.91635">
<ele>376</ele>
<time>2021-04-08T00:23:19Z</time></trkpt>
<trkpt lat="31.64548" lon="34.91651">
<ele>379</ele>
<time>2021-04-08T00:23:23Z</time></trkpt>
<trkpt lat="31.6454" lon="34.91649">
<ele>378</ele>
<time>2021-04-08T00:23:24Z</time></trkpt>
<trkpt lat="31.64528" lon="34.91647">
<ele>378</ele>
<time>2021-04-08T00:23:27Z</time></trkpt>
<trkpt lat="31.64509" lon="34.91647">
<ele>379</ele>
<time>2021-04-08T00:23:30Z</time></trkpt>
<trkpt lat="31.64498" lon="34.91645">
<ele>378</ele>
<time>2021-04-08T00:23:33Z</time></trkpt>
<trkpt lat="31.64483" lon="34.91641">
<ele>378</ele>
<time>2021-04-08T00:23:36Z</time></trkpt>
<trkpt lat="31.64476" lon="34.91633">
<ele>376</ele>
<time>2021-04-08T00:23:38Z</time></trkpt>
<trkpt lat="31.64466" lon="34.9163">
<ele>376</ele>
<time>2021-04-08T00:23:40Z</time></trkpt>
<trkpt lat="31.64454" lon="34.91629">
<ele>376</ele>
<time>2021-04-08T00:23:42Z</time></trkpt>
<trkpt lat="31.64442" lon="34.91627">
<ele>376</ele>
<time>2021-04-08T00:23:45Z</time></trkpt>
<trkpt lat="31.64417" lon="34.91618">
<ele>375</ele>
<time>2021-04-08T00:23:50Z</time></trkpt>
<trkpt lat="31.64381" lon="34.91611">
<ele>376</ele>
<time>2021-04-08T00:23:57Z</time></trkpt>
<trkpt lat="31.64361" lon="34.91604">
<ele>377</ele>
<time>2021-04-08T00:24:01Z</time></trkpt>
<trkpt lat="31.64341" lon="34.91593">
<ele>378</ele>
<time>2021-04-08T00:24:06Z</time></trkpt>
<trkpt lat="31.64305" lon="34.91591">
<ele>381</ele>
<time>2021-04-08T00:24:13Z</time></trkpt>
<trkpt lat="31.64277" lon="34.91591">
<ele>382</ele>
<time>2021-04-08T00:24:19Z</time></trkpt>
<trkpt lat="31.64269" lon="34.91586">
<ele>383</ele>
<time>2021-04-08T00:24:20Z</time></trkpt>
<trkpt lat="31.64267" lon="34.91574">
<ele>383</ele>
<time>2021-04-08T00:24:22Z</time></trkpt>
<trkpt lat="31.64271" lon="34.9155">
<ele>382</ele>
<time>2021-04-08T00:24:27Z</time></trkpt>
<trkpt lat="31.6427" lon="34.91538">
<ele>382</ele>
<time>2021-04-08T00:24:29Z</time></trkpt>
<trkpt lat="31.64265" lon="34.91526">
<ele>382</ele>
<time>2021-04-08T00:24:31Z</time></trkpt>
<trkpt lat="31.64259" lon="34.9152">
<ele>382</ele>
<time>2021-04-08T00:24:33Z</time></trkpt>
<trkpt lat="31.6425" lon="34.91515">
<ele>382</ele>
<time>2021-04-08T00:24:35Z</time></trkpt>
<trkpt lat="31.64237" lon="34.91511">
<ele>383</ele>
<time>2021-04-08T00:24:37Z</time></trkpt>
<trkpt lat="31.64225" lon="34.91508">
<ele>383</ele>
<time>2021-04-08T00:24:40Z</time></trkpt>
<trkpt lat="31.64188" lon="34.91501">
<ele>385</ele>
<time>2021-04-08T00:24:47Z</time></trkpt>
<trkpt lat="31.64144" lon="34.91489">
<ele>386</ele>
<time>2021-04-08T00:24:56Z</time></trkpt>
<trkpt lat="31.64113" lon="34.91474">
<ele>386</ele>
<time>2021-04-08T00:25:03Z</time></trkpt>
<trkpt lat="31.64045" lon="34.91437">
<ele>388</ele>
<time>2021-04-08T00:25:18Z</time></trkpt>
<trkpt lat="31.6403" lon="34.9143">
<ele>389</ele>
<time>2021-04-08T00:25:21Z</time></trkpt>
<trkpt lat="31.6402" lon="34.91427">
<ele>389</ele>
<time>2021-04-08T00:25:23Z</time></trkpt>
<trkpt lat="31.64013" lon="34.91428">
<ele>389</ele>
<time>2021-04-08T00:25:25Z</time></trkpt>
<trkpt lat="31.6398" lon="34.91444">
<ele>390</ele>
<time>2021-04-08T00:25:32Z</time></trkpt>
<trkpt lat="31.63944" lon="34.9145">
<ele>390</ele>
<time>2021-04-08T00:25:39Z</time></trkpt>
<trkpt lat="31.63902" lon="34.91469">
<ele>389</ele>
<time>2021-04-08T00:25:48Z</time></trkpt>
<trkpt lat="31.63867" lon="34.91489">
<ele>388</ele>
<time>2021-04-08T00:25:56Z</time></trkpt>
<trkpt lat="31.63854" lon="34.91492">
<ele>387</ele>
<time>2021-04-08T00:25:59Z</time></trkpt>
<trkpt lat="31.63847" lon="34.91484">
<ele>386</ele>
<time>2021-04-08T00:26:01Z</time></trkpt>
<trkpt lat="31.63846" lon="34.9148">
<ele>386</ele>
<time>2021-04-08T00:26:01Z</time></trkpt>
<trkpt lat="31.63848" lon="34.91435">
<ele>384</ele>
<time>2021-04-08T00:26:09Z</time></trkpt>
<trkpt lat="31.63852" lon="34.91423">
<ele>384</ele>
<time>2021-04-08T00:26:11Z</time></trkpt>
<trkpt lat="31.63865" lon="34.9141">
<ele>383</ele>
<time>2021-04-08T00:26:15Z</time></trkpt>
<trkpt lat="31.6388" lon="34.91401">
<ele>382</ele>
<time>2021-04-08T00:26:18Z</time></trkpt>
<trkpt lat="31.6388" lon="34.914">
<ele>382</ele>
<time>2021-04-08T00:26:18Z</time></trkpt>
<trkpt lat="31.63897" lon="34.9139">
<ele>381</ele>
<time>2021-04-08T00:26:22Z</time></trkpt>
<trkpt lat="31.63913" lon="34.91386">
<ele>381</ele>
<time>2021-04-08T00:26:25Z</time></trkpt>
<trkpt lat="31.63899" lon="34.91389">
<ele>380</ele>
<time>2021-04-08T00:26:28Z</time></trkpt>
<trkpt lat="31.63887" lon="34.91383">
<ele>378</ele>
<time>2021-04-08T00:26:31Z</time></trkpt>
<trkpt lat="31.63854" lon="34.91375">
<ele>374</ele>
<time>2021-04-08T00:26:37Z</time></trkpt>
<trkpt lat="31.63836" lon="34.91372">
<ele>372</ele>
<time>2021-04-08T00:26:41Z</time></trkpt>
<trkpt lat="31.63817" lon="34.91372">
<ele>371</ele>
<time>2021-04-08T00:26:45Z</time></trkpt>
<trkpt lat="31.63783" lon="34.91379">
<ele>370</ele>
<time>2021-04-08T00:26:52Z</time></trkpt>
<trkpt lat="31.63766" lon="34.91379">
<ele>369</ele>
<time>2021-04-08T00:26:55Z</time></trkpt>
<trkpt lat="31.63752" lon="34.91376">
<ele>367</ele>
<time>2021-04-08T00:26:58Z</time></trkpt>
<trkpt lat="31.6376" lon="34.91372">
<ele>367</ele>
<time>2021-04-08T00:27:00Z</time></trkpt>
<trkpt lat="31.63786" lon="34.91357">
<ele>366</ele>
<time>2021-04-08T00:27:06Z</time></trkpt>
<trkpt lat="31.63826" lon="34.91314">
<ele>359</ele>
<time>2021-04-08T00:27:16Z</time></trkpt>
<trkpt lat="31.6386" lon="34.91288">
<ele>354</ele>
<time>2021-04-08T00:27:25Z</time></trkpt>
<trkpt lat="31.63868" lon="34.91285">
<ele>354</ele>
<time>2021-04-08T00:27:26Z</time></trkpt>
<trkpt lat="31.63881" lon="34.91286">
<ele>355</ele>
<time>2021-04-08T00:27:29Z</time></trkpt>
<trkpt lat="31.63888" lon="34.91289">
<ele>356</ele>
<time>2021-04-08T00:27:30Z</time></trkpt>
<trkpt lat="31.63902" lon="34.9129">
<ele>357</ele>
<time>2021-04-08T00:27:33Z</time></trkpt>
<trkpt lat="31.6391" lon="34.91276">
<ele>354</ele>
<time>2021-04-08T00:27:36Z</time></trkpt>
<trkpt lat="31.63914" lon="34.91268">
<ele>352</ele>
<time>2021-04-08T00:27:38Z</time></trkpt>
<trkpt lat="31.63928" lon="34.91231">
<ele>346</ele>
<time>2021-04-08T00:27:45Z</time></trkpt>
<trkpt lat="31.63928" lon="34.91224">
<ele>345</ele>
<time>2021-04-08T00:27:46Z</time></trkpt>
<trkpt lat="31.63922" lon="34.91217">
<ele>342</ele>
<time>2021-04-08T00:27:47Z</time></trkpt>
<trkpt lat="31.63917" lon="34.91216">
<ele>341</ele>
<time>2021-04-08T00:27:48Z</time></trkpt>
<trkpt lat="31.63908" lon="34.91218">
<ele>342</ele>
<time>2021-04-08T00:27:50Z</time></trkpt>
<trkpt lat="31.63896" lon="34.91224">
<ele>343</ele>
<time>2021-04-08T00:27:53Z</time></trkpt>
<trkpt lat="31.63889" lon="34.9123">
<ele>344</ele>
<time>2021-04-08T00:27:55Z</time></trkpt>
<trkpt lat="31.6388" lon="34.91234">
<ele>344</ele>
<time>2021-04-08T00:27:57Z</time></trkpt>
<trkpt lat="31.63875" lon="34.91234">
<ele>344</ele>
<time>2021-04-08T00:27:58Z</time></trkpt>
<trkpt lat="31.63866" lon="34.9123">
<ele>343</ele>
<time>2021-04-08T00:27:59Z</time></trkpt>
<trkpt lat="31.63844" lon="34.9123">
<ele>343</ele>
<time>2021-04-08T00:28:04Z</time></trkpt>
<trkpt lat="31.63853" lon="34.91217">
<ele>342</ele>
<time>2021-04-08T00:28:07Z</time></trkpt>
<trkpt lat="31.6387" lon="34.91211">
<ele>341</ele>
<time>2021-04-08T00:28:10Z</time></trkpt>
<trkpt lat="31.63875" lon="34.91207">
<ele>340</ele>
<time>2021-04-08T00:28:12Z</time></trkpt>
<trkpt lat="31.6388" lon="34.91199">
<ele>339</ele>
<time>2021-04-08T00:28:13Z</time></trkpt>
<trkpt lat="31.63887" lon="34.91162">
<ele>333</ele>
<time>2021-04-08T00:28:20Z</time></trkpt>
<trkpt lat="31.63903" lon="34.9112">
<ele>327</ele>
<time>2021-04-08T00:28:28Z</time></trkpt>
<trkpt lat="31.63914" lon="34.91097">
<ele>321</ele>
<time>2021-04-08T00:28:32Z</time></trkpt>
<trkpt lat="31.63923" lon="34.91072">
<ele>319</ele>
<time>2021-04-08T00:28:37Z</time></trkpt>
<trkpt lat="31.63931" lon="34.91046">
<ele>318</ele>
<time>2021-04-08T00:28:41Z</time></trkpt>
<trkpt lat="31.63936" lon="34.91022">
<ele>317</ele>
<time>2021-04-08T00:28:46Z</time></trkpt>
<trkpt lat="31.63941" lon="34.90989">
<ele>316</ele>
<time>2021-04-08T00:28:51Z</time></trkpt>
<trkpt lat="31.63945" lon="34.90936">
<ele>312</ele>
<time>2021-04-08T00:29:00Z</time></trkpt>
<trkpt lat="31.63945" lon="34.90922">
<ele>311</ele>
<time>2021-04-08T00:29:03Z</time></trkpt>
<trkpt lat="31.63944" lon="34.90916">
<ele>311</ele>
<time>2021-04-08T00:29:04Z</time></trkpt>
<trkpt lat="31.63944" lon="34.90842">
<ele>306</ele>
<time>2021-04-08T00:29:16Z</time></trkpt>
<trkpt lat="31.63942" lon="34.90816">
<ele>304</ele>
<time>2021-04-08T00:29:21Z</time></trkpt>
<trkpt lat="31.63942" lon="34.90795">
<ele>303</ele>
<time>2021-04-08T00:29:24Z</time></trkpt>
<trkpt lat="31.63938" lon="34.90753">
<ele>300</ele>
<time>2021-04-08T00:29:32Z</time></trkpt>
<trkpt lat="31.63933" lon="34.90722">
<ele>298</ele>
<time>2021-04-08T00:29:37Z</time></trkpt>
<trkpt lat="31.63933" lon="34.90712">
<ele>297</ele>
<time>2021-04-08T00:29:39Z</time></trkpt>
<trkpt lat="31.63927" lon="34.90675">
<ele>295</ele>
<time>2021-04-08T00:29:45Z</time></trkpt>
<trkpt lat="31.63928" lon="34.90639">
<ele>294</ele>
<time>2021-04-08T00:29:51Z</time></trkpt>
<trkpt lat="31.63937" lon="34.90577">
<ele>292</ele>
<time>2021-04-08T00:30:02Z</time></trkpt>
<trkpt lat="31.63948" lon="34.90524">
<ele>291</ele>
<time>2021-04-08T00:30:11Z</time></trkpt>
<trkpt lat="31.63962" lon="34.90483">
<ele>289</ele>
<time>2021-04-08T00:30:19Z</time></trkpt>
<trkpt lat="31.63987" lon="34.90418">
<ele>284</ele>
<time>2021-04-08T00:30:31Z</time></trkpt>
<trkpt lat="31.63998" lon="34.90371">
<ele>282</ele>
<time>2021-04-08T00:30:39Z</time></trkpt>
<trkpt lat="31.63999" lon="34.90359">
<ele>282</ele>
<time>2021-04-08T00:30:41Z</time></trkpt>
<trkpt lat="31.63996" lon="34.90349">
<ele>282</ele>
<time>2021-04-08T00:30:43Z</time></trkpt>
<trkpt lat="31.63993" lon="34.90342">
<ele>282</ele>
<time>2021-04-08T00:30:45Z</time></trkpt>
<trkpt lat="31.63985" lon="34.90332">
<ele>283</ele>
<time>2021-04-08T00:30:47Z</time></trkpt>
<trkpt lat="31.63964" lon="34.90318">
<ele>286</ele>
<time>2021-04-08T00:30:52Z</time></trkpt>
<trkpt lat="31.63912" lon="34.90299">
<ele>292</ele>
<time>2021-04-08T00:31:03Z</time></trkpt>
<trkpt lat="31.63887" lon="34.90287">
<ele>293</ele>
<time>2021-04-08T00:31:08Z</time></trkpt>
<trkpt lat="31.63871" lon="34.90286">
<ele>294</ele>
<time>2021-04-08T00:31:11Z</time></trkpt>
<trkpt lat="31.63837" lon="34.90289">
<ele>295</ele>
<time>2021-04-08T00:31:18Z</time></trkpt>
<trkpt lat="31.63829" lon="34.90286">
<ele>295</ele>
<time>2021-04-08T00:31:20Z</time></trkpt>
<trkpt lat="31.63818" lon="34.90274">
<ele>294</ele>
<time>2021-04-08T00:31:23Z</time></trkpt>
<trkpt lat="31.63792" lon="34.90232">
<ele>292</ele>
<time>2021-04-08T00:31:32Z</time></trkpt>
<trkpt lat="31.63788" lon="34.90227">
<ele>291</ele>
<time>2021-04-08T00:31:33Z</time></trkpt>
<trkpt lat="31.6375" lon="34.9017">
<ele>285</ele>
<time>2021-04-08T00:31:45Z</time></trkpt>
<trkpt lat="31.63745" lon="34.90159">
<ele>285</ele>
<time>2021-04-08T00:31:47Z</time></trkpt>
<trkpt lat="31.63741" lon="34.9014">
<ele>284</ele>
<time>2021-04-08T00:31:51Z</time></trkpt>
<trkpt lat="31.63742" lon="34.90121">
<ele>283</ele>
<time>2021-04-08T00:31:54Z</time></trkpt>
<trkpt lat="31.63757" lon="34.90025">
<ele>280</ele>
<time>2021-04-08T00:32:11Z</time></trkpt>
<trkpt lat="31.6376" lon="34.8998">
<ele>277</ele>
<time>2021-04-08T00:32:18Z</time></trkpt>
<trkpt lat="31.63757" lon="34.89934">
<ele>273</ele>
<time>2021-04-08T00:32:26Z</time></trkpt>
<trkpt lat="31.63751" lon="34.89908">
<ele>271</ele>
<time>2021-04-08T00:32:31Z</time></trkpt>
<trkpt lat="31.63732" lon="34.89914">
<ele>272</ele>
<time>2021-04-08T00:32:35Z</time></trkpt>
<trkpt lat="31.63686" lon="34.89938">
<ele>276</ele>
<time>2021-04-08T00:32:45Z</time></trkpt>
<trkpt lat="31.63673" lon="34.89948">
<ele>277</ele>
<time>2021-04-08T00:32:48Z</time></trkpt>
<trkpt lat="31.63642" lon="34.89991">
<ele>280</ele>
<time>2021-04-08T00:32:58Z</time></trkpt>
<trkpt lat="31.63637" lon="34.90001">
<ele>280</ele>
<time>2021-04-08T00:32:59Z</time></trkpt>
<trkpt lat="31.63634" lon="34.90006">
<ele>281</ele>
<time>2021-04-08T00:33:01Z</time></trkpt>
<trkpt lat="31.63634" lon="34.90023">
<ele>281</ele>
<time>2021-04-08T00:33:03Z</time></trkpt>
<trkpt lat="31.63621" lon="34.90134">
<ele>286</ele>
<time>2021-04-08T00:33:23Z</time></trkpt>
<trkpt lat="31.63606" lon="34.9018">
<ele>288</ele>
<time>2021-04-08T00:33:31Z</time></trkpt>
<trkpt lat="31.6359" lon="34.90245">
<ele>290</ele>
<time>2021-04-08T00:33:43Z</time></trkpt>
<trkpt lat="31.6356" lon="34.90345">
<ele>299</ele>
<time>2021-04-08T00:34:01Z</time></trkpt>
<trkpt lat="31.63555" lon="34.90366">
<ele>300</ele>
<time>2021-04-08T00:34:04Z</time></trkpt>
<trkpt lat="31.63552" lon="34.90394">
<ele>302</ele>
<time>2021-04-08T00:34:09Z</time></trkpt>
<trkpt lat="31.6355" lon="34.90443">
<ele>305</ele>
<time>2021-04-08T00:34:17Z</time></trkpt>
<trkpt lat="31.63546" lon="34.9047">
<ele>307</ele>
<time>2021-04-08T00:34:22Z</time></trkpt>
<trkpt lat="31.63538" lon="34.90497">
<ele>308</ele>
<time>2021-04-08T00:34:27Z</time></trkpt>
<trkpt lat="31.63517" lon="34.9054">
<ele>312</ele>
<time>2021-04-08T00:34:36Z</time></trkpt>
<trkpt lat="31.63487" lon="34.90583">
<ele>315</ele>
<time>2021-04-08T00:34:45Z</time></trkpt>
<trkpt lat="31.63463" lon="34.90598">
<ele>318</ele>
<time>2021-04-08T00:34:50Z</time></trkpt>
<trkpt lat="31.63458" lon="34.90599">
<ele>318</ele>
<time>2021-04-08T00:34:51Z</time></trkpt>
<trkpt lat="31.63442" lon="34.90598">
<ele>319</ele>
<time>2021-04-08T00:34:55Z</time></trkpt>
<trkpt lat="31.63412" lon="34.90603">
<ele>321</ele>
<time>2021-04-08T00:35:01Z</time></trkpt>
<trkpt lat="31.63388" lon="34.90596">
<ele>319</ele>
<time>2021-04-08T00:35:06Z</time></trkpt>
<trkpt lat="31.63374" lon="34.90595">
<ele>318</ele>
<time>2021-04-08T00:35:08Z</time></trkpt>
<trkpt lat="31.63359" lon="34.90598">
<ele>317</ele>
<time>2021-04-08T00:35:12Z</time></trkpt>
<trkpt lat="31.63342" lon="34.90605">
<ele>317</ele>
<time>2021-04-08T00:35:15Z</time></trkpt>
<trkpt lat="31.63306" lon="34.90612">
<ele>316</ele>
<time>2021-04-08T00:35:22Z</time></trkpt>
<trkpt lat="31.63293" lon="34.90618">
<ele>316</ele>
<time>2021-04-08T00:35:25Z</time></trkpt>
<trkpt lat="31.63262" lon="34.90636">
<ele>316</ele>
<time>2021-04-08T00:35:32Z</time></trkpt>
<trkpt lat="31.63248" lon="34.90638">
<ele>315</ele>
<time>2021-04-08T00:35:35Z</time></trkpt>
<trkpt lat="31.63218" lon="34.90636">
<ele>314</ele>
<time>2021-04-08T00:35:41Z</time></trkpt>
<trkpt lat="31.63205" lon="34.90637">
<ele>314</ele>
<time>2021-04-08T00:35:44Z</time></trkpt>
<trkpt lat="31.63163" lon="34.90656">
<ele>316</ele>
<time>2021-04-08T00:35:53Z</time></trkpt>
<trkpt lat="31.63137" lon="34.90665">
<ele>317</ele>
<time>2021-04-08T00:35:58Z</time></trkpt>
<trkpt lat="31.63087" lon="34.90688">
<ele>323</ele>
<time>2021-04-08T00:36:09Z</time></trkpt>
<trkpt lat="31.63072" lon="34.90694">
<ele>325</ele>
<time>2021-04-08T00:36:12Z</time></trkpt>
<trkpt lat="31.63023" lon="34.90703">
<ele>328</ele>
<time>2021-04-08T00:36:22Z</time></trkpt>
<trkpt lat="31.62988" lon="34.90712">
<ele>330</ele>
<time>2021-04-08T00:36:29Z</time></trkpt>
<trkpt lat="31.62971" lon="34.90711">
<ele>331</ele>
<time>2021-04-08T00:36:33Z</time></trkpt>
<trkpt lat="31.6296" lon="34.9071">
<ele>331</ele>
<time>2021-04-08T00:36:35Z</time></trkpt>
<trkpt lat="31.62923" lon="34.90713">
<ele>332</ele>
<time>2021-04-08T00:36:42Z</time></trkpt>
<trkpt lat="31.62908" lon="34.90711">
<ele>332</ele>
<time>2021-04-08T00:36:45Z</time></trkpt>
<trkpt lat="31.62884" lon="34.90703">
<ele>331</ele>
<time>2021-04-08T00:36:50Z</time></trkpt>
<trkpt lat="31.62862" lon="34.90699">
<ele>331</ele>
<time>2021-04-08T00:36:55Z</time></trkpt>
<trkpt lat="31.62769" lon="34.90696">
<ele>326</ele>
<time>2021-04-08T00:37:13Z</time></trkpt>
<trkpt lat="31.62642" lon="34.9068">
<ele>310</ele>
<time>2021-04-08T00:37:39Z</time></trkpt>
<trkpt lat="31.62608" lon="34.9068">
<ele>307</ele>
<time>2021-04-08T00:37:46Z</time></trkpt>
<trkpt lat="31.62592" lon="34.90682">
<ele>305</ele>
<time>2021-04-08T00:37:49Z</time></trkpt>
<trkpt lat="31.62565" lon="34.90689">
<ele>304</ele>
<time>2021-04-08T00:37:55Z</time></trkpt>
<trkpt lat="31.62493" lon="34.9072">
<ele>297</ele>
<time>2021-04-08T00:38:10Z</time></trkpt>
<trkpt lat="31.6244" lon="34.9074">
<ele>291</ele>
<time>2021-04-08T00:38:21Z</time></trkpt>
<trkpt lat="31.62434" lon="34.90743">
<ele>290</ele>
<time>2021-04-08T00:38:22Z</time></trkpt>
<trkpt lat="31.62426" lon="34.90748">
<ele>289</ele>
<time>2021-04-08T00:38:24Z</time></trkpt>
<trkpt lat="31.6241" lon="34.90759">
<ele>288</ele>
<time>2021-04-08T00:38:28Z</time></trkpt>
<trkpt lat="31.62386" lon="34.90783">
<ele>286</ele>
<time>2021-04-08T00:38:34Z</time></trkpt>
<trkpt lat="31.62369" lon="34.90841">
<ele>283</ele>
<time>2021-04-08T00:38:45Z</time></trkpt>
<trkpt lat="31.6237" lon="34.90879">
<ele>283</ele>
<time>2021-04-08T00:38:51Z</time></trkpt>
<trkpt lat="31.62393" lon="34.90946">
<ele>285</ele>
<time>2021-04-08T00:39:03Z</time></trkpt>
<trkpt lat="31.62417" lon="34.91043">
<ele>284</ele>
<time>2021-04-08T00:39:21Z</time></trkpt>
<trkpt lat="31.62416" lon="34.91064">
<ele>284</ele>
<time>2021-04-08T00:39:24Z</time></trkpt>
<trkpt lat="31.62455" lon="34.91109">
<ele>286</ele>
<time>2021-04-08T00:39:35Z</time></trkpt>
<trkpt lat="31.62493" lon="34.91154">
<ele>286</ele>
<time>2021-04-08T00:39:46Z</time></trkpt>
<trkpt lat="31.62527" lon="34.912">
<ele>289</ele>
<time>2021-04-08T00:39:56Z</time></trkpt>
<trkpt lat="31.62561" lon="34.91245">
<ele>290</ele>
<time>2021-04-08T00:40:07Z</time></trkpt>
<trkpt lat="31.62555" lon="34.91253">
<ele>291</ele>
<time>2021-04-08T00:40:09Z</time></trkpt>
<trkpt lat="31.62544" lon="34.91277">
<ele>293</ele>
<time>2021-04-08T00:40:13Z</time></trkpt>
<trkpt lat="31.62548" lon="34.91286">
<ele>293</ele>
<time>2021-04-08T00:40:15Z</time></trkpt>
<trkpt lat="31.6255" lon="34.91295">
<ele>294</ele>
<time>2021-04-08T00:40:16Z</time></trkpt>
<trkpt lat="31.62547" lon="34.9131">
<ele>295</ele>
<time>2021-04-08T00:40:19Z</time></trkpt>
<trkpt lat="31.62548" lon="34.91318">
<ele>296</ele>
<time>2021-04-08T00:40:21Z</time></trkpt>
<trkpt lat="31.62553" lon="34.91329">
<ele>296</ele>
<time>2021-04-08T00:40:23Z</time></trkpt>
<trkpt lat="31.62579" lon="34.91361">
<ele>296</ele>
<time>2021-04-08T00:40:30Z</time></trkpt>
<trkpt lat="31.62585" lon="34.91372">
<ele>297</ele>
<time>2021-04-08T00:40:32Z</time></trkpt>
<trkpt lat="31.62588" lon="34.91383">
<ele>297</ele>
<time>2021-04-08T00:40:34Z</time></trkpt>
<trkpt lat="31.62592" lon="34.91409">
<ele>299</ele>
<time>2021-04-08T00:40:39Z</time></trkpt>
<trkpt lat="31.62593" lon="34.9143">
<ele>300</ele>
<time>2021-04-08T00:40:42Z</time></trkpt>
<trkpt lat="31.62592" lon="34.91453">
<ele>301</ele>
<time>2021-04-08T00:40:46Z</time></trkpt>
<trkpt lat="31.62582" lon="34.91509">
<ele>304</ele>
<time>2021-04-08T00:40:56Z</time></trkpt>
<trkpt lat="31.62578" lon="34.91539">
<ele>306</ele>
<time>2021-04-08T00:41:01Z</time></trkpt>
<trkpt lat="31.62574" lon="34.91574">
<ele>309</ele>
<time>2021-04-08T00:41:07Z</time></trkpt>
<trkpt lat="31.62561" lon="34.91641">
<ele>314</ele>
<time>2021-04-08T00:41:19Z</time></trkpt>
<trkpt lat="31.6256" lon="34.91652">
<ele>314</ele>
<time>2021-04-08T00:41:21Z</time></trkpt>
<trkpt lat="31.62562" lon="34.91675">
<ele>315</ele>
<time>2021-04-08T00:41:25Z</time></trkpt>
<trkpt lat="31.62554" lon="34.91755">
<ele>318</ele>
<time>2021-04-08T00:41:39Z</time></trkpt>
<trkpt lat="31.62554" lon="34.9178">
<ele>319</ele>
<time>2021-04-08T00:41:43Z</time></trkpt>
<trkpt lat="31.62557" lon="34.9181">
<ele>319</ele>
<time>2021-04-08T00:41:48Z</time></trkpt>
<trkpt lat="31.62563" lon="34.91831">
<ele>318</ele>
<time>2021-04-08T00:41:52Z</time></trkpt>
<trkpt lat="31.62571" lon="34.91852">
<ele>319</ele>
<time>2021-04-08T00:41:56Z</time></trkpt>
<trkpt lat="31.62573" lon="34.91869">
<ele>320</ele>
<time>2021-04-08T00:41:59Z</time></trkpt>
<trkpt lat="31.6257" lon="34.9189">
<ele>322</ele>
<time>2021-04-08T00:42:02Z</time></trkpt>
<trkpt lat="31.62567" lon="34.91898">
<ele>322</ele>
<time>2021-04-08T00:42:04Z</time></trkpt>
<trkpt lat="31.62556" lon="34.91904">
<ele>323</ele>
<time>2021-04-08T00:42:06Z</time></trkpt>
<trkpt lat="31.62549" lon="34.91913">
<ele>324</ele>
<time>2021-04-08T00:42:08Z</time></trkpt>
<trkpt lat="31.62538" lon="34.91942">
<ele>325</ele>
<time>2021-04-08T00:42:14Z</time></trkpt>
<trkpt lat="31.62533" lon="34.91966">
<ele>325</ele>
<time>2021-04-08T00:42:18Z</time></trkpt>
<trkpt lat="31.62527" lon="34.91977">
<ele>325</ele>
<time>2021-04-08T00:42:20Z</time></trkpt>
<trkpt lat="31.62515" lon="34.91989">
<ele>324</ele>
<time>2021-04-08T00:42:23Z</time></trkpt>
<trkpt lat="31.62497" lon="34.92005">
<ele>323</ele>
<time>2021-04-08T00:42:28Z</time></trkpt>
<trkpt lat="31.62476" lon="34.92019">
<ele>321</ele>
<time>2021-04-08T00:42:33Z</time></trkpt>
<trkpt lat="31.6243" lon="34.92041">
<ele>317</ele>
<time>2021-04-08T00:42:43Z</time></trkpt>
<trkpt lat="31.6235" lon="34.92062">
<ele>307</ele>
<time>2021-04-08T00:42:59Z</time></trkpt>
<trkpt lat="31.62332" lon="34.9207">
<ele>305</ele>
<time>2021-04-08T00:43:03Z</time></trkpt>
<trkpt lat="31.62245" lon="34.92102">
<ele>299</ele>
<time>2021-04-08T00:43:21Z</time></trkpt>
<trkpt lat="31.62251" lon="34.92126">
<ele>301</ele>
<time>2021-04-08T00:43:26Z</time></trkpt>
<trkpt lat="31.6225" lon="34.92138">
<ele>302</ele>
<time>2021-04-08T00:43:28Z</time></trkpt>
<trkpt lat="31.6224" lon="34.9215">
<ele>302</ele>
<time>2021-04-08T00:43:30Z</time></trkpt>
<trkpt lat="31.62212" lon="34.92169">
<ele>301</ele>
<time>2021-04-08T00:43:37Z</time></trkpt>
<trkpt lat="31.62198" lon="34.92182">
<ele>301</ele>
<time>2021-04-08T00:43:40Z</time></trkpt>
<trkpt lat="31.62189" lon="34.92209">
<ele>303</ele>
<time>2021-04-08T00:43:45Z</time></trkpt>
<trkpt lat="31.62159" lon="34.92277">
<ele>304</ele>
<time>2021-04-08T00:43:59Z</time></trkpt>
<trkpt lat="31.6214" lon="34.92312">
<ele>304</ele>
<time>2021-04-08T00:44:06Z</time></trkpt>
<trkpt lat="31.62128" lon="34.92329">
<ele>304</ele>
<time>2021-04-08T00:44:09Z</time></trkpt>
<trkpt lat="31.62111" lon="34.92361">
<ele>303</ele>
<time>2021-04-08T00:44:16Z</time></trkpt>
<trkpt lat="31.62098" lon="34.92409">
<ele>303</ele>
<time>2021-04-08T00:44:24Z</time></trkpt>
<trkpt lat="31.62094" lon="34.9243">
<ele>302</ele>
<time>2021-04-08T00:44:28Z</time></trkpt>
<trkpt lat="31.6209" lon="34.92446">
<ele>302</ele>
<time>2021-04-08T00:44:31Z</time></trkpt>
<trkpt lat="31.62079" lon="34.92473">
<ele>300</ele>
<time>2021-04-08T00:44:36Z</time></trkpt>
<trkpt lat="31.6207" lon="34.92486">
<ele>299</ele>
<time>2021-04-08T00:44:39Z</time></trkpt>
<trkpt lat="31.62066" lon="34.92498">
<ele>299</ele>
<time>2021-04-08T00:44:41Z</time></trkpt>
<trkpt lat="31.6206" lon="34.92503">
<ele>298</ele>
<time>2021-04-08T00:44:43Z</time></trkpt>
<trkpt lat="31.62043" lon="34.92511">
<ele>296</ele>
<time>2021-04-08T00:44:46Z</time></trkpt>
<trkpt lat="31.6204" lon="34.92511">
<ele>296</ele>
<time>2021-04-08T00:44:47Z</time></trkpt>
<trkpt lat="31.62029" lon="34.92507">
<ele>294</ele>
<time>2021-04-08T00:44:49Z</time></trkpt>
<trkpt lat="31.62" lon="34.92491">
<ele>291</ele>
<time>2021-04-08T00:44:56Z</time></trkpt>
<trkpt lat="31.61988" lon="34.92487">
<ele>291</ele>
<time>2021-04-08T00:44:58Z</time></trkpt>
<trkpt lat="31.6199" lon="34.92504">
<ele>291</ele>
<time>2021-04-08T00:45:01Z</time></trkpt>
<trkpt lat="31.62" lon="34.92526">
<ele>291</ele>
<time>2021-04-08T00:45:05Z</time></trkpt>
<trkpt lat="31.62002" lon="34.9254">
<ele>292</ele>
<time>2021-04-08T00:45:08Z</time></trkpt>
<trkpt lat="31.62001" lon="34.92547">
<ele>292</ele>
<time>2021-04-08T00:45:09Z</time></trkpt>
<trkpt lat="31.61992" lon="34.92565">
<ele>292</ele>
<time>2021-04-08T00:45:12Z</time></trkpt>
<trkpt lat="31.61934" lon="34.92629">
<ele>296</ele>
<time>2021-04-08T00:45:28Z</time></trkpt>
<trkpt lat="31.61921" lon="34.92652">
<ele>299</ele>
<time>2021-04-08T00:45:33Z</time></trkpt>
<trkpt lat="31.61966" lon="34.92685">
<ele>302</ele>
<time>2021-04-08T00:45:44Z</time></trkpt>
<trkpt lat="31.61996" lon="34.92703">
<ele>304</ele>
<time>2021-04-08T00:45:50Z</time></trkpt>
<trkpt lat="31.6201" lon="34.92714">
<ele>305</ele>
<time>2021-04-08T00:45:54Z</time></trkpt>
<trkpt lat="31.62073" lon="34.9274">
<ele>302</ele>
<time>2021-04-08T00:46:07Z</time></trkpt>
<trkpt lat="31.62145" lon="34.92778">
<ele>302</ele>
<time>2021-04-08T00:46:23Z</time></trkpt>
<trkpt lat="31.6221" lon="34.92838">
<ele>304</ele>
<time>2021-04-08T00:46:40Z</time></trkpt>
<trkpt lat="31.6227" lon="34.92907">
<ele>306</ele>
<time>2021-04-08T00:46:56Z</time></trkpt>
<trkpt lat="31.62286" lon="34.92927">
<ele>307</ele>
<time>2021-04-08T00:47:01Z</time></trkpt>
<trkpt lat="31.623" lon="34.92948">
<ele>307</ele>
<time>2021-04-08T00:47:06Z</time></trkpt>
<trkpt lat="31.62314" lon="34.92979">
<ele>307</ele>
<time>2021-04-08T00:47:12Z</time></trkpt>
<trkpt lat="31.62321" lon="34.93005">
<ele>307</ele>
<time>2021-04-08T00:47:16Z</time></trkpt>
<trkpt lat="31.62326" lon="34.93034">
<ele>308</ele>
<time>2021-04-08T00:47:21Z</time></trkpt>
<trkpt lat="31.62327" lon="34.93052">
<ele>308</ele>
<time>2021-04-08T00:47:24Z</time></trkpt>
<trkpt lat="31.62326" lon="34.93076">
<ele>309</ele>
<time>2021-04-08T00:47:29Z</time></trkpt>
<trkpt lat="31.6233" lon="34.93155">
<ele>312</ele>
<time>2021-04-08T00:47:42Z</time></trkpt>
<trkpt lat="31.62329" lon="34.9317">
<ele>313</ele>
<time>2021-04-08T00:47:45Z</time></trkpt>
<trkpt lat="31.6232" lon="34.93198">
<ele>313</ele>
<time>2021-04-08T00:47:50Z</time></trkpt>
<trkpt lat="31.6232" lon="34.93199">
<ele>313</ele>
<time>2021-04-08T00:47:50Z</time></trkpt>
<trkpt lat="31.62319" lon="34.93198">
<ele>313</ele>
<time>2021-04-08T00:47:50Z</time></trkpt>
<trkpt lat="31.62305" lon="34.93223">
<ele>314</ele>
<time>2021-04-08T00:47:55Z</time></trkpt>
<trkpt lat="31.62282" lon="34.93254">
<ele>313</ele>
<time>2021-04-08T00:48:02Z</time></trkpt>
<trkpt lat="31.62263" lon="34.93273">
<ele>315</ele>
<time>2021-04-08T00:48:07Z</time></trkpt>
<trkpt lat="31.62199" lon="34.93353">
<ele>321</ele>
<time>2021-04-08T00:48:26Z</time></trkpt>
<trkpt lat="31.62168" lon="34.93397">
<ele>325</ele>
<time>2021-04-08T00:48:36Z</time></trkpt>
<trkpt lat="31.62162" lon="34.93413">
<ele>327</ele>
<time>2021-04-08T00:48:39Z</time></trkpt>
<trkpt lat="31.62138" lon="34.93482">
<ele>334</ele>
<time>2021-04-08T00:48:51Z</time></trkpt>
<trkpt lat="31.62125" lon="34.9354">
<ele>339</ele>
<time>2021-04-08T00:49:02Z</time></trkpt>
<trkpt lat="31.6212" lon="34.93564">
<ele>340</ele>
<time>2021-04-08T00:49:06Z</time></trkpt>
<trkpt lat="31.62115" lon="34.93599">
<ele>342</ele>
<time>2021-04-08T00:49:12Z</time></trkpt>
<trkpt lat="31.62115" lon="34.93624">
<ele>343</ele>
<time>2021-04-08T00:49:16Z</time></trkpt>
<trkpt lat="31.62109" lon="34.93671">
<ele>344</ele>
<time>2021-04-08T00:49:24Z</time></trkpt>
<trkpt lat="31.62109" lon="34.93695">
<ele>346</ele>
<time>2021-04-08T00:49:28Z</time></trkpt>
<trkpt lat="31.62112" lon="34.93729">
<ele>349</ele>
<time>2021-04-08T00:49:34Z</time></trkpt>
<trkpt lat="31.62112" lon="34.93753">
<ele>351</ele>
<time>2021-04-08T00:49:38Z</time></trkpt>
<trkpt lat="31.62109" lon="34.93801">
<ele>353</ele>
<time>2021-04-08T00:49:47Z</time></trkpt>
<trkpt lat="31.62114" lon="34.93848">
<ele>356</ele>
<time>2021-04-08T00:49:55Z</time></trkpt>
<trkpt lat="31.62124" lon="34.93894">
<ele>358</ele>
<time>2021-04-08T00:50:03Z</time></trkpt>
<trkpt lat="31.6213" lon="34.93933">
<ele>360</ele>
<time>2021-04-08T00:50:09Z</time></trkpt>
<trkpt lat="31.62132" lon="34.94014">
<ele>363</ele>
<time>2021-04-08T00:50:23Z</time></trkpt>
<trkpt lat="31.62121" lon="34.94083">
<ele>366</ele>
<time>2021-04-08T00:50:35Z</time></trkpt>
<trkpt lat="31.62085" lon="34.9422">
<ele>370</ele>
<time>2021-04-08T00:51:00Z</time></trkpt>
<trkpt lat="31.62079" lon="34.94257">
<ele>372</ele>
<time>2021-04-08T00:51:06Z</time></trkpt>
<trkpt lat="31.62077" lon="34.94274">
<ele>374</ele>
<time>2021-04-08T00:51:09Z</time></trkpt>
<trkpt lat="31.62058" lon="34.94377">
<ele>381</ele>
<time>2021-04-08T00:51:27Z</time></trkpt>
<trkpt lat="31.62056" lon="34.94392">
<ele>382</ele>
<time>2021-04-08T00:51:30Z</time></trkpt>
<trkpt lat="31.62056" lon="34.94405">
<ele>382</ele>
<time>2021-04-08T00:51:32Z</time></trkpt>
<trkpt lat="31.62057" lon="34.94409">
<ele>382</ele>
<time>2021-04-08T00:51:33Z</time></trkpt>
<trkpt lat="31.62058" lon="34.94411">
<ele>382</ele>
<time>2021-04-08T00:51:33Z</time></trkpt>
<trkpt lat="31.61998" lon="34.94421">
<ele>384</ele>
<time>2021-04-08T00:51:45Z</time></trkpt>
<trkpt lat="31.61981" lon="34.94422">
<ele>383</ele>
<time>2021-04-08T00:51:49Z</time></trkpt>
<trkpt lat="31.61971" lon="34.9442">
<ele>383</ele>
<time>2021-04-08T00:51:51Z</time></trkpt>
<trkpt lat="31.6196" lon="34.94424">
<ele>383</ele>
<time>2021-04-08T00:51:53Z</time></trkpt>
<trkpt lat="31.61926" lon="34.94424">
<ele>381</ele>
<time>2021-04-08T00:52:00Z</time></trkpt>
<trkpt lat="31.61915" lon="34.94426">
<ele>381</ele>
<time>2021-04-08T00:52:02Z</time></trkpt>
<trkpt lat="31.61902" lon="34.94433">
<ele>378</ele>
<time>2021-04-08T00:52:05Z</time></trkpt>
<trkpt lat="31.61857" lon="34.94446">
<ele>369</ele>
<time>2021-04-08T00:52:14Z</time></trkpt>
<trkpt lat="31.61839" lon="34.94441">
<ele>366</ele>
<time>2021-04-08T00:52:18Z</time></trkpt>
<trkpt lat="31.618" lon="34.94418">
<ele>356</ele>
<time>2021-04-08T00:52:27Z</time></trkpt>
<trkpt lat="31.61789" lon="34.94408">
<ele>355</ele>
<time>2021-04-08T00:52:29Z</time></trkpt>
<trkpt lat="31.61781" lon="34.94399">
<ele>354</ele>
<time>2021-04-08T00:52:32Z</time></trkpt>
<trkpt lat="31.61762" lon="34.94387">
<ele>352</ele>
<time>2021-04-08T00:52:36Z</time></trkpt>
<trkpt lat="31.61705" lon="34.94377">
<ele>346</ele>
<time>2021-04-08T00:52:47Z</time></trkpt>
<trkpt lat="31.61683" lon="34.94379">
<ele>343</ele>
<time>2021-04-08T00:52:52Z</time></trkpt>
<trkpt lat="31.61651" lon="34.94379">
<ele>339</ele>
<time>2021-04-08T00:52:58Z</time></trkpt>
<trkpt lat="31.61609" lon="34.94384">
<ele>332</ele>
<time>2021-04-08T00:53:07Z</time></trkpt>
<trkpt lat="31.6161" lon="34.94414">
<ele>330</ele>
<time>2021-04-08T00:53:12Z</time></trkpt>
<trkpt lat="31.61609" lon="34.94426">
<ele>330</ele>
<time>2021-04-08T00:53:14Z</time></trkpt>
<trkpt lat="31.61594" lon="34.94465">
<ele>329</ele>
<time>2021-04-08T00:53:21Z</time></trkpt>
<trkpt lat="31.61583" lon="34.94496">
<ele>328</ele>
<time>2021-04-08T00:53:27Z</time></trkpt>
<trkpt lat="31.6157" lon="34.94558">
<ele>329</ele>
<time>2021-04-08T00:53:38Z</time></trkpt>
<trkpt lat="31.61562" lon="34.94612">
<ele>329</ele>
<time>2021-04-08T00:53:47Z</time></trkpt>
<trkpt lat="31.6156" lon="34.9462">
<ele>328</ele>
<time>2021-04-08T00:53:49Z</time></trkpt>
<trkpt lat="31.61553" lon="34.94635">
<ele>328</ele>
<time>2021-04-08T00:53:52Z</time></trkpt>
<trkpt lat="31.6155" lon="34.94647">
<ele>328</ele>
<time>2021-04-08T00:53:54Z</time></trkpt>
<trkpt lat="31.61547" lon="34.94676">
<ele>327</ele>
<time>2021-04-08T00:53:59Z</time></trkpt>
<trkpt lat="31.61549" lon="34.94702">
<ele>327</ele>
<time>2021-04-08T00:54:03Z</time></trkpt>
<trkpt lat="31.61548" lon="34.94723">
<ele>326</ele>
<time>2021-04-08T00:54:07Z</time></trkpt>
<trkpt lat="31.61533" lon="34.94775">
<ele>326</ele>
<time>2021-04-08T00:54:16Z</time></trkpt>
<trkpt lat="31.6152" lon="34.94802">
<ele>326</ele>
<time>2021-04-08T00:54:21Z</time></trkpt>
<trkpt lat="31.61453" lon="34.94874">
<ele>329</ele>
<time>2021-04-08T00:54:40Z</time></trkpt>
<trkpt lat="31.61442" lon="34.94878">
<ele>328</ele>
<time>2021-04-08T00:54:42Z</time></trkpt>
<trkpt lat="31.61421" lon="34.94901">
<ele>328</ele>
<time>2021-04-08T00:54:48Z</time></trkpt>
<trkpt lat="31.61396" lon="34.94918">
<ele>327</ele>
<time>2021-04-08T00:54:53Z</time></trkpt>
<trkpt lat="31.61388" lon="34.94926">
<ele>327</ele>
<time>2021-04-08T00:54:55Z</time></trkpt>
<trkpt lat="31.61376" lon="34.94947">
<ele>328</ele>
<time>2021-04-08T00:55:00Z</time></trkpt>
<trkpt lat="31.61375" lon="34.9496">
<ele>330</ele>
<time>2021-04-08T00:55:02Z</time></trkpt>
<trkpt lat="31.61366" lon="34.94978">
<ele>331</ele>
<time>2021-04-08T00:55:06Z</time></trkpt>
<trkpt lat="31.61363" lon="34.9499">
<ele>331</ele>
<time>2021-04-08T00:55:08Z</time></trkpt>
<trkpt lat="31.61342" lon="34.9503">
<ele>331</ele>
<time>2021-04-08T00:55:16Z</time></trkpt>
<trkpt lat="31.61334" lon="34.95053">
<ele>331</ele>
<time>2021-04-08T00:55:20Z</time></trkpt>
<trkpt lat="31.61324" lon="34.95094">
<ele>333</ele>
<time>2021-04-08T00:55:27Z</time></trkpt>
<trkpt lat="31.61307" lon="34.9514">
<ele>331</ele>
<time>2021-04-08T00:55:36Z</time></trkpt>
<trkpt lat="31.61291" lon="34.95163">
<ele>330</ele>
<time>2021-04-08T00:55:41Z</time></trkpt>
<trkpt lat="31.61279" lon="34.95172">
<ele>330</ele>
<time>2021-04-08T00:55:44Z</time></trkpt>
<trkpt lat="31.61267" lon="34.95193">
<ele>331</ele>
<time>2021-04-08T00:55:48Z</time></trkpt>
<trkpt lat="31.61245" lon="34.95246">
<ele>333</ele>
<time>2021-04-08T00:55:58Z</time></trkpt>
<trkpt lat="31.61244" lon="34.95271">
<ele>334</ele>
<time>2021-04-08T00:56:02Z</time></trkpt>
<trkpt lat="31.61247" lon="34.95287">
<ele>335</ele>
<time>2021-04-08T00:56:05Z</time></trkpt>
<trkpt lat="31.61247" lon="34.95296">
<ele>335</ele>
<time>2021-04-08T00:56:07Z</time></trkpt>
<trkpt lat="31.61245" lon="34.95308">
<ele>335</ele>
<time>2021-04-08T00:56:09Z</time></trkpt>
<trkpt lat="31.6123" lon="34.95337">
<ele>334</ele>
<time>2021-04-08T00:56:15Z</time></trkpt>
<trkpt lat="31.61222" lon="34.95361">
<ele>334</ele>
<time>2021-04-08T00:56:19Z</time></trkpt>
<trkpt lat="31.61223" lon="34.95411">
<ele>335</ele>
<time>2021-04-08T00:56:28Z</time></trkpt>
<trkpt lat="31.61221" lon="34.95408">
<ele>335</ele>
<time>2021-04-08T00:56:28Z</time></trkpt>
<trkpt lat="31.61202" lon="34.95413">
<ele>334</ele>
<time>2021-04-08T00:56:32Z</time></trkpt>
<trkpt lat="31.61192" lon="34.95427">
<ele>336</ele>
<time>2021-04-08T00:56:35Z</time></trkpt>
<trkpt lat="31.61198" lon="34.95436">
<ele>337</ele>
<time>2021-04-08T00:56:37Z</time></trkpt>
<trkpt lat="31.61225" lon="34.95489">
<ele>341</ele>
<time>2021-04-08T00:56:48Z</time></trkpt>
<trkpt lat="31.61233" lon="34.95507">
<ele>342</ele>
<time>2021-04-08T00:56:51Z</time></trkpt>
<trkpt lat="31.61279" lon="34.9562">
<ele>349</ele>
<time>2021-04-08T00:57:13Z</time></trkpt>
<trkpt lat="31.61292" lon="34.95662">
<ele>349</ele>
<time>2021-04-08T00:57:20Z</time></trkpt>
<trkpt lat="31.61295" lon="34.95678">
<ele>349</ele>
<time>2021-04-08T00:57:23Z</time></trkpt>
<trkpt lat="31.61296" lon="34.95703">
<ele>351</ele>
<time>2021-04-08T00:57:27Z</time></trkpt>
<trkpt lat="31.61294" lon="34.95714">
<ele>352</ele>
<time>2021-04-08T00:57:29Z</time></trkpt>
<trkpt lat="31.61286" lon="34.95746">
<ele>356</ele>
<time>2021-04-08T00:57:35Z</time></trkpt>
<trkpt lat="31.61265" lon="34.95798">
<ele>360</ele>
<time>2021-04-08T00:57:45Z</time></trkpt>
<trkpt lat="31.61259" lon="34.95822">
<ele>361</ele>
<time>2021-04-08T00:57:49Z</time></trkpt>
<trkpt lat="31.61257" lon="34.95843">
<ele>362</ele>
<time>2021-04-08T00:57:53Z</time></trkpt>
<trkpt lat="31.61259" lon="34.95856">
<ele>362</ele>
<time>2021-04-08T00:57:55Z</time></trkpt>
<trkpt lat="31.61266" lon="34.95878">
<ele>362</ele>
<time>2021-04-08T00:57:59Z</time></trkpt>
<trkpt lat="31.61274" lon="34.95896">
<ele>362</ele>
<time>2021-04-08T00:58:02Z</time></trkpt>
<trkpt lat="31.61296" lon="34.9595">
<ele>364</ele>
<time>2021-04-08T00:58:12Z</time></trkpt>
<trkpt lat="31.61319" lon="34.96013">
<ele>369</ele>
<time>2021-04-08T00:58:24Z</time></trkpt>
<trkpt lat="31.6135" lon="34.96173">
<ele>381</ele>
<time>2021-04-08T00:58:52Z</time></trkpt>
<trkpt lat="31.61361" lon="34.96237">
<ele>386</ele>
<time>2021-04-08T00:59:03Z</time></trkpt>
<trkpt lat="31.61363" lon="34.96263">
<ele>387</ele>
<time>2021-04-08T00:59:08Z</time></trkpt>
<trkpt lat="31.61363" lon="34.96282">
<ele>389</ele>
<time>2021-04-08T00:59:11Z</time></trkpt>
<trkpt lat="31.61365" lon="34.96295">
<ele>390</ele>
<time>2021-04-08T00:59:13Z</time></trkpt>
<trkpt lat="31.61372" lon="34.96395">
<ele>398</ele>
<time>2021-04-08T00:59:30Z</time></trkpt>
<trkpt lat="31.61375" lon="34.96495">
<ele>405</ele>
<time>2021-04-08T00:59:47Z</time></trkpt>
<trkpt lat="31.61377" lon="34.96506">
<ele>406</ele>
<time>2021-04-08T00:59:49Z</time></trkpt>
<trkpt lat="31.6138" lon="34.96516">
<ele>406</ele>
<time>2021-04-08T00:59:51Z</time></trkpt>
<trkpt lat="31.61385" lon="34.96529">
<ele>406</ele>
<time>2021-04-08T00:59:54Z</time></trkpt>
<trkpt lat="31.61391" lon="34.96537">
<ele>406</ele>
<time>2021-04-08T00:59:55Z</time></trkpt>
<trkpt lat="31.61407" lon="34.96552">
<ele>407</ele>
<time>2021-04-08T01:00:00Z</time></trkpt>
<trkpt lat="31.61426" lon="34.96564">
<ele>407</ele>
<time>2021-04-08T01:00:04Z</time></trkpt>
<trkpt lat="31.61447" lon="34.96577">
<ele>408</ele>
<time>2021-04-08T01:00:09Z</time></trkpt>
<trkpt lat="31.61497" lon="34.96606">
<ele>409</ele>
<time>2021-04-08T01:00:20Z</time></trkpt>
<trkpt lat="31.61504" lon="34.96609">
<ele>410</ele>
<time>2021-04-08T01:00:21Z</time></trkpt>
<trkpt lat="31.61523" lon="34.96619">
<ele>412</ele>
<time>2021-04-08T01:00:25Z</time></trkpt>
<trkpt lat="31.61545" lon="34.9663">
<ele>414</ele>
<time>2021-04-08T01:00:30Z</time></trkpt>
<trkpt lat="31.6158" lon="34.96641">
<ele>416</ele>
<time>2021-04-08T01:00:38Z</time></trkpt>
<trkpt lat="31.6164" lon="34.96644">
<ele>416</ele>
<time>2021-04-08T01:00:50Z</time></trkpt>
<trkpt lat="31.61768" lon="34.96678">
<ele>412</ele>
<time>2021-04-08T01:01:16Z</time></trkpt>
<trkpt lat="31.61791" lon="34.96681">
<ele>411</ele>
<time>2021-04-08T01:01:20Z</time></trkpt>
<trkpt lat="31.61801" lon="34.9668">
<ele>411</ele>
<time>2021-04-08T01:01:22Z</time></trkpt>
<trkpt lat="31.61808" lon="34.9668">
<ele>411</ele>
<time>2021-04-08T01:01:24Z</time></trkpt>
<trkpt lat="31.61822" lon="34.96676">
<ele>410</ele>
<time>2021-04-08T01:01:27Z</time></trkpt>
<trkpt lat="31.61862" lon="34.96663">
<ele>409</ele>
<time>2021-04-08T01:01:35Z</time></trkpt>
<trkpt lat="31.61938" lon="34.96642">
<ele>409</ele>
<time>2021-04-08T01:01:51Z</time></trkpt>
<trkpt lat="31.6196" lon="34.96641">
<ele>409</ele>
<time>2021-04-08T01:01:55Z</time></trkpt>
<trkpt lat="31.61973" lon="34.96641">
<ele>409</ele>
<time>2021-04-08T01:01:58Z</time></trkpt>
<trkpt lat="31.62001" lon="34.96644">
<ele>409</ele>
<time>2021-04-08T01:02:03Z</time></trkpt>
<trkpt lat="31.62058" lon="34.96654">
<ele>408</ele>
<time>2021-04-08T01:02:15Z</time></trkpt>
<trkpt lat="31.62074" lon="34.96656">
<ele>408</ele>
<time>2021-04-08T01:02:18Z</time></trkpt>
<trkpt lat="31.62121" lon="34.96661">
<ele>408</ele>
<time>2021-04-08T01:02:28Z</time></trkpt>
<trkpt lat="31.62138" lon="34.96665">
<ele>408</ele>
<time>2021-04-08T01:02:31Z</time></trkpt>
<trkpt lat="31.62159" lon="34.96676">
<ele>409</ele>
<time>2021-04-08T01:02:36Z</time></trkpt>
<trkpt lat="31.62169" lon="34.96684">
<ele>409</ele>
<time>2021-04-08T01:02:38Z</time></trkpt>
<trkpt lat="31.622" lon="34.9671">
<ele>409</ele>
<time>2021-04-08T01:02:46Z</time></trkpt>
<trkpt lat="31.6221" lon="34.96722">
<ele>409</ele>
<time>2021-04-08T01:02:49Z</time></trkpt>
<trkpt lat="31.62221" lon="34.96738">
<ele>409</ele>
<time>2021-04-08T01:02:52Z</time></trkpt>
<trkpt lat="31.62224" lon="34.96743">
<ele>409</ele>
<time>2021-04-08T01:02:53Z</time></trkpt>
<trkpt lat="31.62244" lon="34.9678">
<ele>408</ele>
<time>2021-04-08T01:03:01Z</time></trkpt>
<trkpt lat="31.62247" lon="34.96785">
<ele>408</ele>
<time>2021-04-08T01:03:02Z</time></trkpt>
<trkpt lat="31.6226" lon="34.9681">
<ele>407</ele>
<time>2021-04-08T01:03:07Z</time></trkpt>
<trkpt lat="31.62264" lon="34.96823">
<ele>406</ele>
<time>2021-04-08T01:03:09Z</time></trkpt>
<trkpt lat="31.62267" lon="34.96846">
<ele>406</ele>
<time>2021-04-08T01:03:13Z</time></trkpt>
<trkpt lat="31.62265" lon="34.96883">
<ele>409</ele>
<time>2021-04-08T01:03:19Z</time></trkpt>
<trkpt lat="31.62266" lon="34.96901">
<ele>410</ele>
<time>2021-04-08T01:03:22Z</time></trkpt>
<trkpt lat="31.62267" lon="34.96909">
<ele>410</ele>
<time>2021-04-08T01:03:24Z</time></trkpt>
<trkpt lat="31.62269" lon="34.96914">
<ele>410</ele>
<time>2021-04-08T01:03:25Z</time></trkpt>
<trkpt lat="31.62274" lon="34.96924">
<ele>410</ele>
<time>2021-04-08T01:03:27Z</time></trkpt>
<trkpt lat="31.6228" lon="34.96931">
<ele>410</ele>
<time>2021-04-08T01:03:28Z</time></trkpt>
<trkpt lat="31.62291" lon="34.96941">
<ele>410</ele>
<time>2021-04-08T01:03:31Z</time></trkpt>
<trkpt lat="31.62304" lon="34.96949">
<ele>409</ele>
<time>2021-04-08T01:03:34Z</time></trkpt>
<trkpt lat="31.62346" lon="34.96969">
<ele>406</ele>
<time>2021-04-08T01:03:43Z</time></trkpt>
<trkpt lat="31.62353" lon="34.96975">
<ele>405</ele>
<time>2021-04-08T01:03:45Z</time></trkpt>
<trkpt lat="31.62363" lon="34.96982">
<ele>404</ele>
<time>2021-04-08T01:03:47Z</time></trkpt>
<trkpt lat="31.62373" lon="34.96994">
<ele>404</ele>
<time>2021-04-08T01:03:50Z</time></trkpt>
<trkpt lat="31.62383" lon="34.97011">
<ele>404</ele>
<time>2021-04-08T01:03:54Z</time></trkpt>
<trkpt lat="31.62389" lon="34.97032">
<ele>403</ele>
<time>2021-04-08T01:03:57Z</time></trkpt>
<trkpt lat="31.62394" lon="34.97057">
<ele>403</ele>
<time>2021-04-08T01:04:02Z</time></trkpt>
<trkpt lat="31.62394" lon="34.97075">
<ele>404</ele>
<time>2021-04-08T01:04:05Z</time></trkpt>
<trkpt lat="31.62391" lon="34.97102">
<ele>405</ele>
<time>2021-04-08T01:04:10Z</time></trkpt>
<trkpt lat="31.62367" lon="34.97182">
<ele>407</ele>
<time>2021-04-08T01:04:24Z</time></trkpt>
<trkpt lat="31.62347" lon="34.97251">
<ele>407</ele>
<time>2021-04-08T01:04:36Z</time></trkpt>
<trkpt lat="31.62346" lon="34.97259">
<ele>407</ele>
<time>2021-04-08T01:04:38Z</time></trkpt>
<trkpt lat="31.62347" lon="34.97277">
<ele>406</ele>
<time>2021-04-08T01:04:41Z</time></trkpt>
<trkpt lat="31.62357" lon="34.97329">
<ele>404</ele>
<time>2021-04-08T01:04:50Z</time></trkpt>
<trkpt lat="31.62357" lon="34.97351">
<ele>403</ele>
<time>2021-04-08T01:04:54Z</time></trkpt>
<trkpt lat="31.62356" lon="34.97358">
<ele>402</ele>
<time>2021-04-08T01:04:55Z</time></trkpt>
<trkpt lat="31.62354" lon="34.97368">
<ele>402</ele>
<time>2021-04-08T01:04:57Z</time></trkpt>
<trkpt lat="31.62347" lon="34.97383">
<ele>401</ele>
<time>2021-04-08T01:05:00Z</time></trkpt>
<trkpt lat="31.62337" lon="34.97399">
<ele>401</ele>
<time>2021-04-08T01:05:03Z</time></trkpt>
<trkpt lat="31.62328" lon="34.97419">
<ele>401</ele>
<time>2021-04-08T01:05:07Z</time></trkpt>
<trkpt lat="31.62326" lon="34.97438">
<ele>400</ele>
<time>2021-04-08T01:05:10Z</time></trkpt>
<trkpt lat="31.62328" lon="34.97458">
<ele>399</ele>
<time>2021-04-08T01:05:14Z</time></trkpt>
<trkpt lat="31.62336" lon="34.97472">
<ele>398</ele>
<time>2021-04-08T01:05:16Z</time></trkpt>
<trkpt lat="31.62361" lon="34.97532">
<ele>395</ele>
<time>2021-04-08T01:05:28Z</time></trkpt>
<trkpt lat="31.62365" lon="34.97546">
<ele>395</ele>
<time>2021-04-08T01:05:30Z</time></trkpt>
<trkpt lat="31.6237" lon="34.97555">
<ele>395</ele>
<time>2021-04-08T01:05:32Z</time></trkpt>
<trkpt lat="31.62377" lon="34.97563">
<ele>394</ele>
<time>2021-04-08T01:05:34Z</time></trkpt>
<trkpt lat="31.62392" lon="34.97575">
<ele>393</ele>
<time>2021-04-08T01:05:38Z</time></trkpt>
<trkpt lat="31.6241" lon="34.97578">
<ele>391</ele>
<time>2021-04-08T01:05:41Z</time></trkpt>
<trkpt lat="31.62419" lon="34.97582">
<ele>391</ele>
<time>2021-04-08T01:05:43Z</time></trkpt>
<trkpt lat="31.62433" lon="34.97583">
<ele>392</ele>
<time>2021-04-08T01:05:46Z</time></trkpt>
<trkpt lat="31.62478" lon="34.97579">
<ele>393</ele>
<time>2021-04-08T01:05:55Z</time></trkpt>
<trkpt lat="31.62669" lon="34.97589">
<ele>401</ele>
<time>2021-04-08T01:06:34Z</time></trkpt>
<trkpt lat="31.62682" lon="34.97591">
<ele>402</ele>
<time>2021-04-08T01:06:36Z</time></trkpt>
<trkpt lat="31.62707" lon="34.97599">
<ele>402</ele>
<time>2021-04-08T01:06:41Z</time></trkpt>
<trkpt lat="31.62773" lon="34.97638">
<ele>405</ele>
<time>2021-04-08T01:06:56Z</time></trkpt>
<trkpt lat="31.62796" lon="34.97653">
<ele>405</ele>
<time>2021-04-08T01:07:01Z</time></trkpt>
<trkpt lat="31.6283" lon="34.97678">
<ele>406</ele>
<time>2021-04-08T01:07:09Z</time></trkpt>
<trkpt lat="31.62844" lon="34.97693">
<ele>407</ele>
<time>2021-04-08T01:07:13Z</time></trkpt>
<trkpt lat="31.62852" lon="34.97704">
<ele>407</ele>
<time>2021-04-08T01:07:16Z</time></trkpt>
<trkpt lat="31.62876" lon="34.97759">
<ele>410</ele>
<time>2021-04-08T01:07:26Z</time></trkpt>
<trkpt lat="31.62882" lon="34.97769">
<ele>410</ele>
<time>2021-04-08T01:07:28Z</time></trkpt>
<trkpt lat="31.62887" lon="34.97773">
<ele>410</ele>
<time>2021-04-08T01:07:30Z</time></trkpt>
<trkpt lat="31.62894" lon="34.97777">
<ele>410</ele>
<time>2021-04-08T01:07:31Z</time></trkpt>
<trkpt lat="31.62908" lon="34.97777">
<ele>410</ele>
<time>2021-04-08T01:07:34Z</time></trkpt>
<trkpt lat="31.62919" lon="34.97773">
<ele>409</ele>
<time>2021-04-08T01:07:36Z</time></trkpt>
<trkpt lat="31.62943" lon="34.97758">
<ele>410</ele>
<time>2021-04-08T01:07:42Z</time></trkpt>
<trkpt lat="31.6297" lon="34.97747">
<ele>411</ele>
<time>2021-04-08T01:07:47Z</time></trkpt>
<trkpt lat="31.62982" lon="34.97745">
<ele>411</ele>
<time>2021-04-08T01:07:50Z</time></trkpt>
<trkpt lat="31.63011" lon="34.97741">
<ele>413</ele>
<time>2021-04-08T01:07:56Z</time></trkpt>
<trkpt lat="31.63019" lon="34.97734">
<ele>413</ele>
<time>2021-04-08T01:07:58Z</time></trkpt>
<trkpt lat="31.63022" lon="34.9773">
<ele>414</ele>
<time>2021-04-08T01:07:59Z</time></trkpt>
<trkpt lat="31.63027" lon="34.97717">
<ele>414</ele>
<time>2021-04-08T01:08:01Z</time></trkpt>
<trkpt lat="31.63032" lon="34.97697">
<ele>413</ele>
<time>2021-04-08T01:08:05Z</time></trkpt>
<trkpt lat="31.62955" lon="34.97655">
<ele>405</ele>
<time>2021-04-08T01:08:22Z</time></trkpt>
<trkpt lat="31.62947" lon="34.97649">
<ele>405</ele>
<time>2021-04-08T01:08:24Z</time></trkpt>
<trkpt lat="31.62936" lon="34.97638">
<ele>404</ele>
<time>2021-04-08T01:08:26Z</time></trkpt>
<trkpt lat="31.62896" lon="34.97565">
<ele>401</ele>
<time>2021-04-08T01:08:41Z</time></trkpt>
<trkpt lat="31.62876" lon="34.97534">
<ele>400</ele>
<time>2021-04-08T01:08:48Z</time></trkpt>
<trkpt lat="31.62861" lon="34.97518">
<ele>399</ele>
<time>2021-04-08T01:08:52Z</time></trkpt>
<trkpt lat="31.62846" lon="34.975">
<ele>398</ele>
<time>2021-04-08T01:08:56Z</time></trkpt>
<trkpt lat="31.62839" lon="34.97491">
<ele>398</ele>
<time>2021-04-08T01:08:58Z</time></trkpt>
<trkpt lat="31.62823" lon="34.97474">
<ele>397</ele>
<time>2021-04-08T01:09:03Z</time></trkpt>
<trkpt lat="31.62781" lon="34.97445">
<ele>395</ele>
<time>2021-04-08T01:09:12Z</time></trkpt>
<trkpt lat="31.62748" lon="34.9741">
<ele>392</ele>
<time>2021-04-08T01:09:21Z</time></trkpt>
<trkpt lat="31.62725" lon="34.97377">
<ele>392</ele>
<time>2021-04-08T01:09:29Z</time></trkpt>
<trkpt lat="31.62704" lon="34.97341">
<ele>391</ele>
<time>2021-04-08T01:09:36Z</time></trkpt>
<trkpt lat="31.6269" lon="34.9731">
<ele>390</ele>
<time>2021-04-08T01:09:42Z</time></trkpt>
<trkpt lat="31.62678" lon="34.97276">
<ele>390</ele>
<time>2021-04-08T01:09:48Z</time></trkpt>
<trkpt lat="31.62665" lon="34.97235">
<ele>389</ele>
<time>2021-04-08T01:09:56Z</time></trkpt>
<trkpt lat="31.62654" lon="34.97196">
<ele>389</ele>
<time>2021-04-08T01:10:03Z</time></trkpt>
<trkpt lat="31.62644" lon="34.97169">
<ele>388</ele>
<time>2021-04-08T01:10:08Z</time></trkpt>
<trkpt lat="31.62632" lon="34.97142">
<ele>388</ele>
<time>2021-04-08T01:10:13Z</time></trkpt>
<trkpt lat="31.62617" lon="34.97123">
<ele>387</ele>
<time>2021-04-08T01:10:17Z</time></trkpt>
<trkpt lat="31.62592" lon="34.97093">
<ele>385</ele>
<time>2021-04-08T01:10:25Z</time></trkpt>
<trkpt lat="31.62583" lon="34.97083">
<ele>384</ele>
<time>2021-04-08T01:10:27Z</time></trkpt>
<trkpt lat="31.62565" lon="34.97054">
<ele>385</ele>
<time>2021-04-08T01:10:33Z</time></trkpt>
<trkpt lat="31.62551" lon="34.97018">
<ele>385</ele>
<time>2021-04-08T01:10:40Z</time></trkpt>
<trkpt lat="31.62547" lon="34.96999">
<ele>384</ele>
<time>2021-04-08T01:10:43Z</time></trkpt>
<trkpt lat="31.62548" lon="34.96961">
<ele>383</ele>
<time>2021-04-08T01:10:50Z</time></trkpt>
<trkpt lat="31.62554" lon="34.96942">
<ele>383</ele>
<time>2021-04-08T01:10:53Z</time></trkpt>
<trkpt lat="31.62564" lon="34.96918">
<ele>382</ele>
<time>2021-04-08T01:10:58Z</time></trkpt>
<trkpt lat="31.62577" lon="34.96898">
<ele>382</ele>
<time>2021-04-08T01:11:02Z</time></trkpt>
<trkpt lat="31.62591" lon="34.96875">
<ele>381</ele>
<time>2021-04-08T01:11:07Z</time></trkpt>
<trkpt lat="31.62624" lon="34.96829">
<ele>381</ele>
<time>2021-04-08T01:11:17Z</time></trkpt>
<trkpt lat="31.62688" lon="34.96726">
<ele>379</ele>
<time>2021-04-08T01:11:39Z</time></trkpt>
<trkpt lat="31.62697" lon="34.96707">
<ele>378</ele>
<time>2021-04-08T01:11:43Z</time></trkpt>
<trkpt lat="31.62698" lon="34.96693">
<ele>378</ele>
<time>2021-04-08T01:11:45Z</time></trkpt>
<trkpt lat="31.62696" lon="34.96686">
<ele>377</ele>
<time>2021-04-08T01:11:46Z</time></trkpt>
<trkpt lat="31.62694" lon="34.96671">
<ele>377</ele>
<time>2021-04-08T01:11:49Z</time></trkpt>
<trkpt lat="31.62691" lon="34.96659">
<ele>376</ele>
<time>2021-04-08T01:11:51Z</time></trkpt>
<trkpt lat="31.62695" lon="34.96625">
<ele>377</ele>
<time>2021-04-08T01:11:57Z</time></trkpt>
<trkpt lat="31.62703" lon="34.96604">
<ele>376</ele>
<time>2021-04-08T01:12:01Z</time></trkpt>
<trkpt lat="31.62709" lon="34.96593">
<ele>376</ele>
<time>2021-04-08T01:12:03Z</time></trkpt>
<trkpt lat="31.62804" lon="34.96471">
<ele>370</ele>
<time>2021-04-08T01:12:31Z</time></trkpt>
<trkpt lat="31.62815" lon="34.96458">
<ele>369</ele>
<time>2021-04-08T01:12:34Z</time></trkpt>
<trkpt lat="31.62814" lon="34.96456">
<ele>369</ele>
<time>2021-04-08T01:12:35Z</time></trkpt>
<trkpt lat="31.62815" lon="34.96458">
<ele>369</ele>
<time>2021-04-08T01:12:35Z</time></trkpt>
<trkpt lat="31.6286" lon="34.96407">
<ele>368</ele>
<time>2021-04-08T01:12:48Z</time></trkpt>
<trkpt lat="31.62909" lon="34.96355">
<ele>369</ele>
<time>2021-04-08T01:13:01Z</time></trkpt>
<trkpt lat="31.6298" lon="34.96295">
<ele>369</ele>
<time>2021-04-08T01:13:18Z</time></trkpt>
<trkpt lat="31.63027" lon="34.96247">
<ele>366</ele>
<time>2021-04-08T01:13:31Z</time></trkpt>
<trkpt lat="31.63057" lon="34.96228">
<ele>366</ele>
<time>2021-04-08T01:13:38Z</time></trkpt>
<trkpt lat="31.63067" lon="34.96223">
<ele>366</ele>
<time>2021-04-08T01:13:40Z</time></trkpt>
<trkpt lat="31.63093" lon="34.96216">
<ele>365</ele>
<time>2021-04-08T01:13:45Z</time></trkpt>
<trkpt lat="31.6319" lon="34.96195">
<ele>363</ele>
<time>2021-04-08T01:14:05Z</time></trkpt>
<trkpt lat="31.63217" lon="34.96188">
<ele>362</ele>
<time>2021-04-08T01:14:11Z</time></trkpt>
<trkpt lat="31.63279" lon="34.96163">
<ele>359</ele>
<time>2021-04-08T01:14:24Z</time></trkpt>
<trkpt lat="31.63308" lon="34.96155">
<ele>359</ele>
<time>2021-04-08T01:14:30Z</time></trkpt>
<trkpt lat="31.63336" lon="34.96153">
<ele>359</ele>
<time>2021-04-08T01:14:35Z</time></trkpt>
<trkpt lat="31.63359" lon="34.96156">
<ele>359</ele>
<time>2021-04-08T01:14:40Z</time></trkpt>
<trkpt lat="31.63429" lon="34.96177">
<ele>358</ele>
<time>2021-04-08T01:14:54Z</time></trkpt>
<trkpt lat="31.63463" lon="34.96181">
<ele>358</ele>
<time>2021-04-08T01:15:01Z</time></trkpt>
<trkpt lat="31.63484" lon="34.96178">
<ele>357</ele>
<time>2021-04-08T01:15:05Z</time></trkpt>
<trkpt lat="31.63517" lon="34.9617">
<ele>356</ele>
<time>2021-04-08T01:15:12Z</time></trkpt>
<trkpt lat="31.63557" lon="34.96167">
<ele>355</ele>
<time>2021-04-08T01:15:20Z</time></trkpt>
<trkpt lat="31.63602" lon="34.9617">
<ele>355</ele>
<time>2021-04-08T01:15:29Z</time></trkpt>
<trkpt lat="31.63601" lon="34.9617">
<ele>355</ele>
<time>2021-04-08T01:15:30Z</time></trkpt>
<trkpt lat="31.63648" lon="34.96174">
<ele>355</ele>
<time>2021-04-08T01:15:39Z</time></trkpt>
<trkpt lat="31.63741" lon="34.96161">
<ele>350</ele>
<time>2021-04-08T01:15:58Z</time></trkpt>
<trkpt lat="31.6375" lon="34.96161">
<ele>350</ele>
<time>2021-04-08T01:16:00Z</time></trkpt>
<trkpt lat="31.63769" lon="34.96166">
<ele>350</ele>
<time>2021-04-08T01:16:03Z</time></trkpt>
<trkpt lat="31.63781" lon="34.96172">
<ele>350</ele>
<time>2021-04-08T01:16:06Z</time></trkpt>
<trkpt lat="31.63805" lon="34.9619">
<ele>351</ele>
<time>2021-04-08T01:16:12Z</time></trkpt>
<trkpt lat="31.6382" lon="34.96197">
<ele>352</ele>
<time>2021-04-08T01:16:15Z</time></trkpt>
<trkpt lat="31.63893" lon="34.96246">
<ele>357</ele>
<time>2021-04-08T01:16:32Z</time></trkpt>
<trkpt lat="31.63892" lon="34.96246">
<ele>357</ele>
<time>2021-04-08T01:16:32Z</time></trkpt>
<trkpt lat="31.63943" lon="34.96278">
<ele>360</ele>
<time>2021-04-08T01:16:44Z</time></trkpt>
<trkpt lat="31.63961" lon="34.96254">
<ele>359</ele>
<time>2021-04-08T01:16:49Z</time></trkpt>
<trkpt lat="31.63984" lon="34.96228">
<ele>358</ele>
<time>2021-04-08T01:16:55Z</time></trkpt>
<trkpt lat="31.64005" lon="34.96199">
<ele>357</ele>
<time>2021-04-08T01:17:02Z</time></trkpt>
<trkpt lat="31.64014" lon="34.9618">
<ele>358</ele>
<time>2021-04-08T01:17:06Z</time></trkpt>
<trkpt lat="31.64021" lon="34.96152">
<ele>358</ele>
<time>2021-04-08T01:17:11Z</time></trkpt>
<trkpt lat="31.64021" lon="34.96127">
<ele>359</ele>
<time>2021-04-08T01:17:15Z</time></trkpt>
<trkpt lat="31.64012" lon="34.96103">
<ele>359</ele>
<time>2021-04-08T01:17:19Z</time></trkpt>
<trkpt lat="31.63995" lon="34.96071">
<ele>357</ele>
<time>2021-04-08T01:17:26Z</time></trkpt>
<trkpt lat="31.63971" lon="34.96045">
<ele>353</ele>
<time>2021-04-08T01:17:32Z</time></trkpt>
<trkpt lat="31.63967" lon="34.96034">
<ele>352</ele>
<time>2021-04-08T01:17:34Z</time></trkpt>
<trkpt lat="31.63966" lon="34.96017">
<ele>352</ele>
<time>2021-04-08T01:17:37Z</time></trkpt>
<trkpt lat="31.6397" lon="34.95988">
<ele>351</ele>
<time>2021-04-08T01:17:42Z</time></trkpt>
<trkpt lat="31.63977" lon="34.95963">
<ele>352</ele>
<time>2021-04-08T01:17:47Z</time></trkpt>
<trkpt lat="31.63987" lon="34.95937">
<ele>352</ele>
<time>2021-04-08T01:17:52Z</time></trkpt>
<trkpt lat="31.64008" lon="34.95892">
<ele>351</ele>
<time>2021-04-08T01:18:00Z</time></trkpt>
<trkpt lat="31.64029" lon="34.95853">
<ele>349</ele>
<time>2021-04-08T01:18:08Z</time></trkpt>
<trkpt lat="31.64039" lon="34.95841">
<ele>349</ele>
<time>2021-04-08T01:18:11Z</time></trkpt>
<trkpt lat="31.64046" lon="34.95826">
<ele>348</ele>
<time>2021-04-08T01:18:14Z</time></trkpt>
<trkpt lat="31.64059" lon="34.95806">
<ele>348</ele>
<time>2021-04-08T01:18:18Z</time></trkpt>
<trkpt lat="31.64074" lon="34.95787">
<ele>347</ele>
<time>2021-04-08T01:18:23Z</time></trkpt>
<trkpt lat="31.64085" lon="34.95777">
<ele>347</ele>
<time>2021-04-08T01:18:26Z</time></trkpt>
<trkpt lat="31.64107" lon="34.95762">
<ele>346</ele>
<time>2021-04-08T01:18:31Z</time></trkpt>
<trkpt lat="31.64127" lon="34.95752">
<ele>346</ele>
<time>2021-04-08T01:18:35Z</time></trkpt>
<trkpt lat="31.64221" lon="34.95719">
<ele>347</ele>
<time>2021-04-08T01:18:55Z</time></trkpt>
<trkpt lat="31.64268" lon="34.95716">
<ele>348</ele>
<time>2021-04-08T01:19:04Z</time></trkpt>
<trkpt lat="31.64291" lon="34.95721">
<ele>348</ele>
<time>2021-04-08T01:19:09Z</time></trkpt>
<trkpt lat="31.6432" lon="34.95734">
<ele>349</ele>
<time>2021-04-08T01:19:15Z</time></trkpt>
<trkpt lat="31.64319" lon="34.95734">
<ele>349</ele>
<time>2021-04-08T01:19:15Z</time></trkpt>
<trkpt lat="31.64356" lon="34.9575">
<ele>350</ele>
<time>2021-04-08T01:19:23Z</time></trkpt>
<trkpt lat="31.64364" lon="34.95758">
<ele>351</ele>
<time>2021-04-08T01:19:25Z</time></trkpt>
<trkpt lat="31.64383" lon="34.95787">
<ele>354</ele>
<time>2021-04-08T01:19:31Z</time></trkpt>
<trkpt lat="31.64391" lon="34.95797">
<ele>355</ele>
<time>2021-04-08T01:19:34Z</time></trkpt>
<trkpt lat="31.64409" lon="34.95809">
<ele>355</ele>
<time>2021-04-08T01:19:38Z</time></trkpt>
<trkpt lat="31.64423" lon="34.95792">
<ele>354</ele>
<time>2021-04-08T01:19:42Z</time></trkpt>
<trkpt lat="31.64429" lon="34.95787">
<ele>354</ele>
<time>2021-04-08T01:19:43Z</time></trkpt>
<trkpt lat="31.64437" lon="34.95773">
<ele>354</ele>
<time>2021-04-08T01:19:46Z</time></trkpt>
<trkpt lat="31.64442" lon="34.95753">
<ele>352</ele>
<time>2021-04-08T01:19:50Z</time></trkpt>
<trkpt lat="31.64446" lon="34.95728">
<ele>350</ele>
<time>2021-04-08T01:19:54Z</time></trkpt>
<trkpt lat="31.6445" lon="34.95716">
<ele>350</ele>
<time>2021-04-08T01:19:56Z</time></trkpt>
<trkpt lat="31.64462" lon="34.95695">
<ele>349</ele>
<time>2021-04-08T01:20:01Z</time></trkpt>
<trkpt lat="31.64491" lon="34.95663">
<ele>347</ele>
<time>2021-04-08T01:20:09Z</time></trkpt>
<trkpt lat="31.64509" lon="34.95648">
<ele>346</ele>
<time>2021-04-08T01:20:13Z</time></trkpt>
<trkpt lat="31.64576" lon="34.95599">
<ele>344</ele>
<time>2021-04-08T01:20:29Z</time></trkpt>
<trkpt lat="31.6459" lon="34.95586">
<ele>343</ele>
<time>2021-04-08T01:20:33Z</time></trkpt>
<trkpt lat="31.64605" lon="34.9557">
<ele>342</ele>
<time>2021-04-08T01:20:37Z</time></trkpt>
<trkpt lat="31.64691" lon="34.9547">
<ele>336</ele>
<time>2021-04-08T01:21:01Z</time></trkpt>
<trkpt lat="31.64696" lon="34.95476">
<ele>336</ele>
<time>2021-04-08T01:21:02Z</time></trkpt>
<trkpt lat="31.64692" lon="34.95471">
<ele>336</ele>
<time>2021-04-08T01:21:03Z</time></trkpt>
<trkpt lat="31.64715" lon="34.95442">
<ele>335</ele>
<time>2021-04-08T01:21:10Z</time></trkpt>
<trkpt lat="31.64785" lon="34.9536">
<ele>336</ele>
<time>2021-04-08T01:21:30Z</time></trkpt>
<trkpt lat="31.64801" lon="34.95344">
<ele>336</ele>
<time>2021-04-08T01:21:34Z</time></trkpt>
<trkpt lat="31.64814" lon="34.95333">
<ele>337</ele>
<time>2021-04-08T01:21:37Z</time></trkpt>
<trkpt lat="31.64848" lon="34.95312">
<ele>336</ele>
<time>2021-04-08T01:21:45Z</time></trkpt>
<trkpt lat="31.64852" lon="34.95309">
<ele>336</ele>
<time>2021-04-08T01:21:46Z</time></trkpt>
<trkpt lat="31.64901" lon="34.95293">
<ele>336</ele>
<time>2021-04-08T01:21:56Z</time></trkpt>
<trkpt lat="31.64942" lon="34.95282">
<ele>334</ele>
<time>2021-04-08T01:22:05Z</time></trkpt>
<trkpt lat="31.64955" lon="34.95276">
<ele>333</ele>
<time>2021-04-08T01:22:08Z</time></trkpt>
<trkpt lat="31.64962" lon="34.95271">
<ele>333</ele>
<time>2021-04-08T01:22:09Z</time></trkpt>
<trkpt lat="31.64972" lon="34.9526">
<ele>331</ele>
<time>2021-04-08T01:22:12Z</time></trkpt>
<trkpt lat="31.64981" lon="34.95242">
<ele>329</ele>
<time>2021-04-08T01:22:15Z</time></trkpt>
<trkpt lat="31.64985" lon="34.95231">
<ele>329</ele>
<time>2021-04-08T01:22:17Z</time></trkpt>
<trkpt lat="31.65004" lon="34.95169">
<ele>325</ele>
<time>2021-04-08T01:22:29Z</time></trkpt>
<trkpt lat="31.65009" lon="34.95163">
<ele>326</ele>
<time>2021-04-08T01:22:30Z</time></trkpt>
<trkpt lat="31.65029" lon="34.95145">
<ele>326</ele>
<time>2021-04-08T01:22:35Z</time></trkpt>
<trkpt lat="31.65034" lon="34.9514">
<ele>326</ele>
<time>2021-04-08T01:22:37Z</time></trkpt>
<trkpt lat="31.65072" lon="34.95115">
<ele>325</ele>
<time>2021-04-08T01:22:45Z</time></trkpt>
<trkpt lat="31.65117" lon="34.9508">
<ele>324</ele>
<time>2021-04-08T01:22:56Z</time></trkpt>
<trkpt lat="31.65139" lon="34.95066">
<ele>324</ele>
<time>2021-04-08T01:23:01Z</time></trkpt>
<trkpt lat="31.65172" lon="34.95051">
<ele>325</ele>
<time>2021-04-08T01:23:08Z</time></trkpt>
<trkpt lat="31.65185" lon="34.95043">
<ele>325</ele>
<time>2021-04-08T01:23:11Z</time></trkpt>
<trkpt lat="31.65201" lon="34.95031">
<ele>325</ele>
<time>2021-04-08T01:23:15Z</time></trkpt>
<trkpt lat="31.65207" lon="34.95022">
<ele>325</ele>
<time>2021-04-08T01:23:17Z</time></trkpt>
<trkpt lat="31.65206" lon="34.95006">
<ele>324</ele>
<time>2021-04-08T01:23:20Z</time></trkpt>
<trkpt lat="31.65185" lon="34.94924">
<ele>323</ele>
<time>2021-04-08T01:23:34Z</time></trkpt>
<trkpt lat="31.65162" lon="34.94813">
<ele>322</ele>
<time>2021-04-08T01:23:54Z</time></trkpt>
<trkpt lat="31.65149" lon="34.94774">
<ele>322</ele>
<time>2021-04-08T01:24:01Z</time></trkpt>
<trkpt lat="31.6512" lon="34.94706">
<ele>321</ele>
<time>2021-04-08T01:24:14Z</time></trkpt>
<trkpt lat="31.65114" lon="34.94686">
<ele>320</ele>
<time>2021-04-08T01:24:17Z</time></trkpt>
<trkpt lat="31.65103" lon="34.94637">
<ele>318</ele>
<time>2021-04-08T01:24:26Z</time></trkpt>
<trkpt lat="31.651" lon="34.94612">
<ele>316</ele>
<time>2021-04-08T01:24:30Z</time></trkpt>
<trkpt lat="31.651" lon="34.94599">
<ele>316</ele>
<time>2021-04-08T01:24:33Z</time></trkpt>
<trkpt lat="31.65104" lon="34.94579">
<ele>315</ele>
<time>2021-04-08T01:24:36Z</time></trkpt>
<trkpt lat="31.65113" lon="34.9456">
<ele>315</ele>
<time>2021-04-08T01:24:40Z</time></trkpt>
<trkpt lat="31.65119" lon="34.9455">
<ele>315</ele>
<time>2021-04-08T01:24:42Z</time></trkpt>
<trkpt lat="31.65125" lon="34.94545">
<ele>315</ele>
<time>2021-04-08T01:24:43Z</time></trkpt>
<trkpt lat="31.65145" lon="34.94535">
<ele>315</ele>
<time>2021-04-08T01:24:48Z</time></trkpt>
<trkpt lat="31.65163" lon="34.94531">
<ele>315</ele>
<time>2021-04-08T01:24:51Z</time></trkpt>
<trkpt lat="31.65202" lon="34.94526">
<ele>317</ele>
<time>2021-04-08T01:24:59Z</time></trkpt>
<trkpt lat="31.65237" lon="34.9452">
<ele>318</ele>
<time>2021-04-08T01:25:06Z</time></trkpt>
<trkpt lat="31.65255" lon="34.94515">
<ele>319</ele>
<time>2021-04-08T01:25:10Z</time></trkpt>
<trkpt lat="31.65268" lon="34.94507">
<ele>319</ele>
<time>2021-04-08T01:25:13Z</time></trkpt>
<trkpt lat="31.65278" lon="34.94496">
<ele>318</ele>
<time>2021-04-08T01:25:16Z</time></trkpt>
<trkpt lat="31.65291" lon="34.94475">
<ele>317</ele>
<time>2021-04-08T01:25:20Z</time></trkpt>
<trkpt lat="31.65326" lon="34.94411">
<ele>312</ele>
<time>2021-04-08T01:25:33Z</time></trkpt>
<trkpt lat="31.65337" lon="34.94394">
<ele>311</ele>
<time>2021-04-08T01:25:37Z</time></trkpt>
<trkpt lat="31.65355" lon="34.94373">
<ele>310</ele>
<time>2021-04-08T01:25:42Z</time></trkpt>
<trkpt lat="31.65369" lon="34.9436">
<ele>310</ele>
<time>2021-04-08T01:25:45Z</time></trkpt>
<trkpt lat="31.65391" lon="34.94346">
<ele>309</ele>
<time>2021-04-08T01:25:50Z</time></trkpt>
<trkpt lat="31.65458" lon="34.94305">
<ele>308</ele>
<time>2021-04-08T01:26:06Z</time></trkpt>
<trkpt lat="31.65491" lon="34.94288">
<ele>307</ele>
<time>2021-04-08T01:26:13Z</time></trkpt>
<trkpt lat="31.65569" lon="34.94334">
<ele>307</ele>
<time>2021-04-08T01:26:30Z</time></trkpt>
<trkpt lat="31.65611" lon="34.94358">
<ele>308</ele>
<time>2021-04-08T01:26:40Z</time></trkpt>
<trkpt lat="31.65632" lon="34.94361">
<ele>309</ele>
<time>2021-04-08T01:26:44Z</time></trkpt>
<trkpt lat="31.65687" lon="34.94352">
<ele>310</ele>
<time>2021-04-08T01:26:55Z</time></trkpt>
<trkpt lat="31.65704" lon="34.94346">
<ele>310</ele>
<time>2021-04-08T01:26:59Z</time></trkpt>
<trkpt lat="31.65725" lon="34.94333">
<ele>310</ele>
<time>2021-04-08T01:27:03Z</time></trkpt>
<trkpt lat="31.65749" lon="34.94316">
<ele>310</ele>
<time>2021-04-08T01:27:09Z</time></trkpt>
<trkpt lat="31.65805" lon="34.94266">
<ele>310</ele>
<time>2021-04-08T01:27:23Z</time></trkpt>
<trkpt lat="31.65816" lon="34.94255">
<ele>309</ele>
<time>2021-04-08T01:27:26Z</time></trkpt>
<trkpt lat="31.65824" lon="34.94242">
<ele>309</ele>
<time>2021-04-08T01:27:29Z</time></trkpt>
<trkpt lat="31.65829" lon="34.94229">
<ele>309</ele>
<time>2021-04-08T01:27:31Z</time></trkpt>
<trkpt lat="31.6583" lon="34.94212">
<ele>308</ele>
<time>2021-04-08T01:27:34Z</time></trkpt>
<trkpt lat="31.65821" lon="34.9416">
<ele>306</ele>
<time>2021-04-08T01:27:43Z</time></trkpt>
<trkpt lat="31.65816" lon="34.94109">
<ele>304</ele>
<time>2021-04-08T01:27:52Z</time></trkpt>
<trkpt lat="31.65819" lon="34.94009">
<ele>299</ele>
<time>2021-04-08T01:28:09Z</time></trkpt>
<trkpt lat="31.65823" lon="34.93977">
<ele>298</ele>
<time>2021-04-08T01:28:14Z</time></trkpt>
<trkpt lat="31.65841" lon="34.93922">
<ele>297</ele>
<time>2021-04-08T01:28:24Z</time></trkpt>
<trkpt lat="31.65851" lon="34.93897">
<ele>296</ele>
<time>2021-04-08T01:28:29Z</time></trkpt>
<trkpt lat="31.65869" lon="34.93864">
<ele>296</ele>
<time>2021-04-08T01:28:36Z</time></trkpt>
<trkpt lat="31.65889" lon="34.93838">
<ele>295</ele>
<time>2021-04-08T01:28:42Z</time></trkpt>
<trkpt lat="31.65886" lon="34.93842">
<ele>295</ele>
<time>2021-04-08T01:28:43Z</time></trkpt>
<trkpt lat="31.65929" lon="34.93788">
<ele>294</ele>
<time>2021-04-08T01:28:55Z</time></trkpt>
<trkpt lat="31.65994" lon="34.93699">
<ele>294</ele>
<time>2021-04-08T01:29:15Z</time></trkpt>
<trkpt lat="31.66049" lon="34.93616">
<ele>292</ele>
<time>2021-04-08T01:29:33Z</time></trkpt>
<trkpt lat="31.66064" lon="34.93598">
<ele>291</ele>
<time>2021-04-08T01:29:38Z</time></trkpt>
<trkpt lat="31.66075" lon="34.9359">
<ele>290</ele>
<time>2021-04-08T01:29:40Z</time></trkpt>
<trkpt lat="31.66084" lon="34.93586">
<ele>289</ele>
<time>2021-04-08T01:29:42Z</time></trkpt>
<trkpt lat="31.66099" lon="34.93584">
<ele>289</ele>
<time>2021-04-08T01:29:45Z</time></trkpt>
<trkpt lat="31.66144" lon="34.93597">
<ele>291</ele>
<time>2021-04-08T01:29:54Z</time></trkpt>
<trkpt lat="31.66188" lon="34.93602">
<ele>292</ele>
<time>2021-04-08T01:30:03Z</time></trkpt>
<trkpt lat="31.66247" lon="34.93614">
<ele>293</ele>
<time>2021-04-08T01:30:15Z</time></trkpt>
<trkpt lat="31.66283" lon="34.93627">
<ele>293</ele>
<time>2021-04-08T01:30:23Z</time></trkpt>
<trkpt lat="31.66314" lon="34.93641">
<ele>293</ele>
<time>2021-04-08T01:30:29Z</time></trkpt>
<trkpt lat="31.66318" lon="34.93642">
<ele>292</ele>
<time>2021-04-08T01:30:30Z</time></trkpt>
</trkseg>
</trk>
</gpx>